Time,TemperatureF,DewpointF,PressureIn,WindDirection,WindDirectionDegrees,WindSpeedMPH,WindSpeedGustMPH,Humidity,HourlyPrecipIn,Conditions,Clouds,dailyrainin,SoftwareType,DateUTC
2013-05-25 00:01:00,70.3,69.1,29.99,NE,37,3.0,5.0,96,0.00,,,1.45,Wunderground v.1.15,2013-05-25 05:01:00,
2013-05-25 00:03:00,70.4,69.2,29.99,NE,38,2.0,5.0,96,0.00,,,0.00,Wunderground v.1.15,2013-05-25 05:03:00,
2013-05-25 00:06:00,70.4,69.2,29.99,NE,47,2.0,5.0,96,0.00,,,0.00,Wunderground v.1.15,2013-05-25 05:06:00,
2013-05-25 00:08:00,70.4,69.2,29.99,NE,40,2.0,5.0,96,0.00,,,0.00,Wunderground v.1.15,2013-05-25 05:08:00,
2013-05-25 00:12:00,70.4,69.2,29.99,NE,37,2.0,5.0,96,0.00,,,0.00,Wunderground v.1.15,2013-05-25 05:12:00,
2013-05-25 00:13:00,70.4,69.2,29.99,NE,37,2.0,6.0,96,0.00,,,0.00,Wunderground v.1.15,2013-05-25 05:13:00,
2013-05-25 00:16:00,70.4,69.2,29.99,NE,38,2.0,6.0,96,0.00,,,0.00,Wunderground v.1.15,2013-05-25 05:16:00,
2013-05-25 00:17:00,70.4,69.2,29.99,NE,37,2.0,6.0,96,0.00,,,0.00,Wunderground v.1.15,2013-05-25 05:17:00,
2013-05-25 00:19:00,70.4,69.2,29.99,NE,38,2.0,6.0,96,0.00,,,0.00,Wunderground v.1.15,2013-05-25 05:19:00,
2013-05-25 00:21:00,70.4,69.2,29.99,NE,38,2.0,2.0,96,0.00,,,0.00,Wunderground v.1.15,2013-05-25 05:21:00,
2013-05-25 00:22:00,70.4,69.2,29.99,NE,38,2.0,2.0,96,0.00,,,0.00,Wunderground v.1.15,2013-05-25 05:22:00,
2013-05-25 00:25:00,70.4,69.2,29.99,NE,38,2.0,3.0,96,0.00,,,0.00,Wunderground v.1.15,2013-05-25 05:25:00,
2013-05-25 00:28:00,70.4,69.2,29.99,ENE,69,2.0,5.0,96,0.00,,,0.00,Wunderground v.1.15,2013-05-25 05:28:00,
2013-05-25 00:31:00,70.4,69.2,29.99,ENE,64,1.0,1.0,96,0.00,,,0.00,Wunderground v.1.15,2013-05-25 05:31:00,
2013-05-25 00:32:00,70.4,69.2,30.00,ENE,64,1.0,1.0,96,0.00,,,0.00,Wunderground v.1.15,2013-05-25 05:32:00,
2013-05-25 00:37:00,70.4,69.2,30.00,East,83,1.0,3.0,96,0.00,,,0.00,Wunderground v.1.15,2013-05-25 05:37:00,
2013-05-25 00:39:00,70.4,69.2,30.00,ENE,69,1.0,3.0,96,0.00,,,0.00,Wunderground v.1.15,2013-05-25 05:39:00,
2013-05-25 00:43:00,70.4,69.2,30.00,East,80,1.0,6.0,96,0.00,,,0.00,Wunderground v.1.15,2013-05-25 05:43:00,
2013-05-25 00:44:00,70.4,69.2,30.00,East,80,2.0,6.0,96,0.00,,,0.00,Wunderground v.1.15,2013-05-25 05:44:00,
2013-05-25 00:45:00,70.4,69.2,30.00,NE,38,2.0,6.0,96,0.00,,,0.00,Wunderground v.1.15,2013-05-25 05:45:00,
2013-05-25 00:49:00,70.4,69.2,30.01,NE,44,2.0,6.0,96,0.00,,,0.00,Wunderground v.1.15,2013-05-25 05:49:00,
2013-05-25 00:51:00,70.4,69.2,30.01,NE,44,1.0,1.0,96,0.00,,,0.00,Wunderground v.1.15,2013-05-25 05:51:00,
2013-05-25 00:53:00,70.4,69.2,30.01,NE,44,1.0,2.0,96,0.00,,,0.00,Wunderground v.1.15,2013-05-25 05:53:00,
2013-05-25 00:54:00,70.6,69.4,30.01,NE,44,1.0,2.0,96,0.00,,,0.00,Wunderground v.1.15,2013-05-25 05:54:00,
2013-05-25 00:55:00,70.4,69.2,30.01,NE,45,1.0,2.0,96,0.00,,,0.00,Wunderground v.1.15,2013-05-25 05:55:00,
2013-05-25 00:59:00,70.4,69.2,30.01,East,79,2.0,3.0,96,0.00,,,0.00,Wunderground v.1.15,2013-05-25 05:59:00,
2013-05-25 01:01:00,70.4,69.2,30.01,East,79,2.0,2.0,96,0.00,,,0.00,Wunderground v.1.15,2013-05-25 06:01:00,
2013-05-25 01:02:00,70.4,69.2,30.01,East,79,2.0,2.0,96,0.00,,,0.00,Wunderground v.1.15,2013-05-25 06:02:00,
2013-05-25 01:04:00,70.4,69.2,30.01,NE,45,2.0,2.0,96,0.00,,,0.00,Wunderground v.1.15,2013-05-25 06:04:00,
2013-05-25 01:06:00,70.4,69.2,30.01,NE,45,2.0,2.0,96,0.00,,,0.00,Wunderground v.1.15,2013-05-25 06:06:00,
2013-05-25 01:08:00,70.4,69.2,30.01,NE,45,1.0,2.0,96,0.00,,,0.00,Wunderground v.1.15,2013-05-25 06:08:00,
2013-05-25 01:12:00,70.6,69.4,30.01,NE,48,1.0,2.0,96,0.00,,,0.00,Wunderground v.1.15,2013-05-25 06:12:00,
2013-05-25 01:14:00,70.6,69.4,30.01,NE,48,1.0,2.0,96,0.00,,,0.00,Wunderground v.1.15,2013-05-25 06:14:00,
2013-05-25 01:15:00,70.6,69.4,30.01,NE,40,1.0,2.0,96,0.00,,,0.00,Wunderground v.1.15,2013-05-25 06:15:00,
2013-05-25 01:16:00,70.6,69.4,30.01,NE,40,1.0,2.0,96,0.00,,,0.00,Wunderground v.1.15,2013-05-25 06:16:00,
2013-05-25 01:18:00,70.4,69.2,30.01,NE,41,1.0,3.0,96,0.00,,,0.00,Wunderground v.1.15,2013-05-25 06:18:00,
2013-05-25 01:19:00,70.6,69.4,30.01,East,80,1.0,5.0,96,0.00,,,0.00,Wunderground v.1.15,2013-05-25 06:19:00,
2013-05-25 01:21:00,70.4,69.2,30.01,ENE,62,1.0,3.0,96,0.00,,,0.00,Wunderground v.1.15,2013-05-25 06:21:00,
2013-05-25 01:24:00,70.4,69.2,30.01,NE,55,1.0,4.0,96,0.00,,,0.00,Wunderground v.1.15,2013-05-25 06:24:00,
2013-05-25 01:27:00,70.4,69.2,30.01,ENE,59,2.0,4.0,96,0.00,,,0.00,Wunderground v.1.15,2013-05-25 06:27:00,
2013-05-25 01:29:00,70.4,69.2,30.01,ENE,59,1.0,4.0,96,0.00,,,0.00,Wunderground v.1.15,2013-05-25 06:29:00,
2013-05-25 01:33:00,70.4,69.2,30.01,ENE,59,1.0,1.0,96,0.00,,,0.00,Wunderground v.1.15,2013-05-25 06:33:00,
2013-05-25 01:35:00,70.4,69.2,30.01,ENE,59,0.0,1.0,96,0.00,,,0.00,Wunderground v.1.15,2013-05-25 06:35:00,
2013-05-25 01:38:00,70.4,69.2,30.01,ENE,65,1.0,3.0,96,0.00,,,0.00,Wunderground v.1.15,2013-05-25 06:38:00,
2013-05-25 01:41:00,70.6,69.4,30.01,ENE,66,1.0,3.0,96,0.00,,,0.00,Wunderground v.1.15,2013-05-25 06:41:00,
2013-05-25 01:44:00,70.6,69.4,30.01,ENE,71,1.0,3.0,96,0.00,,,0.00,Wunderground v.1.15,2013-05-25 06:44:00,
2013-05-25 01:47:00,70.6,69.4,30.01,ENE,72,1.0,3.0,96,0.00,,,0.00,Wunderground v.1.15,2013-05-25 06:47:00,
2013-05-25 01:51:00,70.8,69.6,30.01,ENE,72,1.0,1.0,96,0.00,,,0.00,Wunderground v.1.15,2013-05-25 06:51:00,
2013-05-25 01:53:00,70.8,69.6,30.01,ENE,76,1.0,4.0,96,0.00,,,0.00,Wunderground v.1.15,2013-05-25 06:53:00,
2013-05-25 01:54:00,70.8,69.6,30.01,ENE,76,1.0,4.0,96,0.00,,,0.00,Wunderground v.1.15,2013-05-25 06:54:00,
2013-05-25 01:56:00,70.8,69.6,30.01,East,79,1.0,4.0,96,0.00,,,0.00,Wunderground v.1.15,2013-05-25 06:56:00,
2013-05-25 02:01:00,70.8,69.6,30.00,East,79,0.0,1.0,96,0.00,,,0.00,Wunderground v.1.15,2013-05-25 07:01:00,
2013-05-25 02:02:00,70.8,69.6,30.00,East,79,0.0,1.0,96,0.00,,,0.00,Wunderground v.1.15,2013-05-25 07:02:00,
2013-05-25 02:03:00,70.8,69.6,30.00,East,83,0.0,1.0,96,0.00,,,0.00,Wunderground v.1.15,2013-05-25 07:03:00,
2013-05-25 02:04:00,70.9,69.7,30.00,East,83,1.0,1.0,96,0.00,,,0.00,Wunderground v.1.15,2013-05-25 07:04:00,
2013-05-25 02:07:00,70.9,69.7,30.00,East,83,1.0,2.0,96,0.00,,,0.00,Wunderground v.1.15,2013-05-25 07:07:00,
2013-05-25 02:08:00,70.9,69.7,30.00,East,83,1.0,2.0,96,0.00,,,0.00,Wunderground v.1.15,2013-05-25 07:08:00,
2013-05-25 02:09:00,70.9,69.7,30.00,East,82,1.0,2.0,96,0.00,,,0.00,Wunderground v.1.15,2013-05-25 07:09:00,
2013-05-25 02:12:00,70.9,69.7,30.00,East,89,1.0,4.0,96,0.00,,,0.00,Wunderground v.1.15,2013-05-25 07:12:00,
2013-05-25 02:14:00,70.9,69.7,30.00,East,90,1.0,4.0,96,0.00,,,0.00,Wunderground v.1.15,2013-05-25 07:14:00,
2013-05-25 02:17:00,70.9,69.7,29.99,East,85,1.0,4.0,96,0.00,,,0.00,Wunderground v.1.15,2013-05-25 07:17:00,
2013-05-25 02:18:00,71.1,69.9,29.99,East,90,2.0,4.0,96,0.00,,,0.00,Wunderground v.1.15,2013-05-25 07:18:00,
2013-05-25 02:21:00,71.1,70.2,29.99,East,90,2.0,2.0,97,0.00,,,0.00,Wunderground v.1.15,2013-05-25 07:21:00,
2013-05-25 02:22:00,71.1,70.2,29.99,East,90,2.0,2.0,97,0.00,,,0.00,Wunderground v.1.15,2013-05-25 07:22:00,
2013-05-25 02:27:00,71.1,70.2,29.99,East,97,2.0,6.0,97,0.00,,,0.00,Wunderground v.1.15,2013-05-25 07:27:00,
2013-05-25 02:28:00,71.1,70.2,29.99,ESE,102,2.0,6.0,97,0.00,,,0.00,Wunderground v.1.15,2013-05-25 07:28:00,
2013-05-25 02:29:00,71.1,70.2,29.99,ESE,104,2.0,6.0,97,0.00,,,0.00,Wunderground v.1.15,2013-05-25 07:29:00,
2013-05-25 02:33:00,71.1,70.2,29.97,East,93,3.0,7.0,97,0.00,,,0.00,Wunderground v.1.15,2013-05-25 07:33:00,
2013-05-25 02:35:00,71.1,70.2,29.97,East,93,2.0,7.0,97,0.00,,,0.00,Wunderground v.1.15,2013-05-25 07:35:00,
2013-05-25 02:37:00,71.1,70.2,29.97,ESE,104,2.0,7.0,97,0.00,,,0.00,Wunderground v.1.15,2013-05-25 07:37:00,
2013-05-25 02:39:00,71.3,70.4,29.97,ESE,121,3.0,7.0,97,0.00,,,0.00,Wunderground v.1.15,2013-05-25 07:39:00,
2013-05-25 02:41:00,71.3,70.4,29.97,East,80,3.0,4.0,97,0.00,,,0.00,Wunderground v.1.15,2013-05-25 07:41:00,
2013-05-25 02:42:00,71.3,70.4,29.97,East,80,3.0,4.0,97,0.00,,,0.00,Wunderground v.1.15,2013-05-25 07:42:00,
2013-05-25 02:43:00,71.3,70.4,29.97,East,79,3.0,4.0,97,0.00,,,0.00,Wunderground v.1.15,2013-05-25 07:43:00,
2013-05-25 02:45:00,71.3,70.4,29.97,East,88,3.0,7.0,97,0.00,,,0.00,Wunderground v.1.15,2013-05-25 07:45:00,
2013-05-25 02:47:00,71.3,70.4,29.97,ESE,109,4.0,8.0,97,0.00,,,0.00,Wunderground v.1.15,2013-05-25 07:47:00,
2013-05-25 02:48:00,71.3,70.4,29.97,ESE,107,3.0,8.0,97,0.00,,,0.00,Wunderground v.1.15,2013-05-25 07:48:00,
2013-05-25 02:49:00,71.3,70.4,29.97,East,97,3.0,8.0,97,0.00,,,0.00,Wunderground v.1.15,2013-05-25 07:49:00,
2013-05-25 02:54:00,71.6,70.7,29.97,SE,124,4.0,4.0,97,0.00,,,0.00,Wunderground v.1.15,2013-05-25 07:54:00,
2013-05-25 02:55:00,71.6,70.7,29.97,ESE,121,4.0,7.0,97,0.00,,,0.00,Wunderground v.1.15,2013-05-25 07:55:00,
2013-05-25 02:57:00,71.6,70.7,29.97,ESE,117,4.0,8.0,97,0.00,,,0.00,Wunderground v.1.15,2013-05-25 07:57:00,
2013-05-25 02:59:00,71.6,70.7,29.97,ESE,123,4.0,8.0,97,0.00,,,0.00,Wunderground v.1.15,2013-05-25 07:59:00,
2013-05-25 03:01:00,71.6,70.7,29.96,ENE,71,4.0,5.0,97,0.00,,,0.00,Wunderground v.1.15,2013-05-25 08:01:00,
2013-05-25 03:02:00,71.6,70.7,29.96,ESE,104,4.0,5.0,97,0.00,,,0.00,Wunderground v.1.15,2013-05-25 08:02:00,
2013-05-25 03:03:00,71.6,70.7,29.96,East,100,4.0,5.0,97,0.00,,,0.00,Wunderground v.1.15,2013-05-25 08:03:00,
2013-05-25 03:04:00,71.6,70.7,29.96,ESE,107,4.0,5.0,97,0.00,,,0.00,Wunderground v.1.15,2013-05-25 08:04:00,
2013-05-25 03:07:00,71.6,70.7,29.96,ESE,113,5.0,9.0,97,0.00,,,0.00,Wunderground v.1.15,2013-05-25 08:07:00,
2013-05-25 03:08:00,71.6,70.7,29.96,ESE,109,5.0,9.0,97,0.00,,,0.00,Wunderground v.1.15,2013-05-25 08:08:00,
2013-05-25 03:12:00,71.6,70.7,29.96,ESE,103,6.0,8.0,97,0.00,,,0.00,Wunderground v.1.15,2013-05-25 08:12:00,
2013-05-25 03:13:00,71.6,70.7,29.96,East,89,6.0,8.0,97,0.00,,,0.00,Wunderground v.1.15,2013-05-25 08:13:00,
2013-05-25 03:16:00,71.6,70.7,29.96,ESE,102,6.0,8.0,97,0.00,,,0.00,Wunderground v.1.15,2013-05-25 08:16:00,
2013-05-25 03:17:00,71.6,70.7,29.95,ESE,109,5.0,8.0,97,0.00,,,0.00,Wunderground v.1.15,2013-05-25 08:17:00,
2013-05-25 03:18:00,71.8,70.9,29.95,East,97,5.0,8.0,97,0.00,,,0.00,Wunderground v.1.15,2013-05-25 08:18:00,
2013-05-25 03:21:00,71.8,70.9,29.95,East,100,5.0,5.0,97,0.00,,,0.00,Wunderground v.1.15,2013-05-25 08:21:00,
2013-05-25 03:23:00,71.8,71.2,29.95,ESE,110,4.0,6.0,98,0.00,,,0.00,Wunderground v.1.15,2013-05-25 08:23:00,
2013-05-25 03:24:00,71.8,71.2,29.95,ESE,112,4.0,6.0,98,0.00,,,0.00,Wunderground v.1.15,2013-05-25 08:24:00,
2013-05-25 03:25:00,71.8,71.2,29.95,East,99,5.0,6.0,98,0.00,,,0.00,Wunderground v.1.15,2013-05-25 08:25:00,
2013-05-25 03:28:00,71.8,71.2,29.95,ESE,106,5.0,6.0,98,0.00,,,0.00,Wunderground v.1.15,2013-05-25 08:28:00,
2013-05-25 03:29:00,71.8,71.2,29.95,ESE,116,5.0,6.0,98,0.00,,,0.00,Wunderground v.1.15,2013-05-25 08:29:00,
2013-05-25 03:32:00,71.8,71.2,29.94,ENE,75,4.0,4.0,98,0.00,,,0.00,Wunderground v.1.15,2013-05-25 08:32:00,
2013-05-25 03:35:00,72.0,71.4,29.94,ESE,103,4.0,7.0,98,0.00,,,0.00,Wunderground v.1.15,2013-05-25 08:35:00,
2013-05-25 03:37:00,72.0,71.4,29.94,ESE,102,4.0,7.0,98,0.00,,,0.00,Wunderground v.1.15,2013-05-25 08:37:00,
2013-05-25 03:39:00,72.0,71.4,29.94,East,90,5.0,7.0,98,0.00,,,0.00,Wunderground v.1.15,2013-05-25 08:39:00,
2013-05-25 03:42:00,72.0,71.4,29.94,East,93,4.0,5.0,98,0.00,,,0.00,Wunderground v.1.15,2013-05-25 08:42:00,
2013-05-25 03:43:00,72.0,71.4,29.94,East,93,4.0,5.0,98,0.00,,,0.00,Wunderground v.1.15,2013-05-25 08:43:00,
2013-05-25 03:45:00,72.0,71.4,29.94,East,100,4.0,5.0,98,0.00,,,0.00,Wunderground v.1.15,2013-05-25 08:45:00,
2013-05-25 03:47:00,72.0,71.4,29.94,ESE,114,3.0,5.0,98,0.00,,,0.00,Wunderground v.1.15,2013-05-25 08:47:00,
2013-05-25 03:48:00,72.0,71.4,29.94,ESE,114,3.0,5.0,98,0.00,,,0.00,Wunderground v.1.15,2013-05-25 08:48:00,
2013-05-25 03:52:00,72.0,71.4,29.94,ESE,114,3.0,3.0,98,0.00,,,0.00,Wunderground v.1.15,2013-05-25 08:52:00,
2013-05-25 03:54:00,72.0,71.4,29.94,ESE,120,3.0,9.0,98,0.00,,,0.00,Wunderground v.1.15,2013-05-25 08:54:00,
2013-05-25 03:55:00,72.0,71.4,29.94,SE,128,3.0,9.0,98,0.00,,,0.00,Wunderground v.1.15,2013-05-25 08:55:00,
2013-05-25 03:58:00,72.0,71.4,29.94,East,92,3.0,9.0,98,0.00,,,0.00,Wunderground v.1.15,2013-05-25 08:58:00,
2013-05-25 04:01:00,72.0,71.4,29.93,East,96,3.0,3.0,98,0.00,,,0.00,Wunderground v.1.15,2013-05-25 09:01:00,
2013-05-25 04:03:00,72.0,71.4,29.93,East,80,4.0,7.0,98,0.00,,,0.00,Wunderground v.1.15,2013-05-25 09:03:00,
2013-05-25 04:05:00,72.0,71.4,29.93,East,85,3.0,7.0,98,0.00,,,0.00,Wunderground v.1.15,2013-05-25 09:05:00,
2013-05-25 04:07:00,72.0,71.4,29.93,ESE,104,4.0,9.0,98,0.00,,,0.00,Wunderground v.1.15,2013-05-25 09:07:00,
2013-05-25 04:08:00,72.0,71.4,29.93,East,83,4.0,9.0,98,0.00,,,0.00,Wunderground v.1.15,2013-05-25 09:08:00,
2013-05-25 04:12:00,71.8,71.2,29.93,East,96,5.0,7.0,98,0.00,,,0.00,Wunderground v.1.15,2013-05-25 09:12:00,
2013-05-25 04:13:00,71.8,71.2,29.93,East,96,5.0,7.0,98,0.00,,,0.00,Wunderground v.1.15,2013-05-25 09:13:00,
2013-05-25 04:14:00,71.8,71.2,29.93,East,100,6.0,7.0,98,0.00,,,0.00,Wunderground v.1.15,2013-05-25 09:14:00,
2013-05-25 04:21:00,72.0,71.4,29.93,ESE,104,4.0,11.0,98,0.00,,,0.00,Wunderground v.1.15,2013-05-25 09:21:00,
2013-05-25 04:22:00,72.0,71.4,29.93,East,96,5.0,11.0,98,0.00,,,0.00,Wunderground v.1.15,2013-05-25 09:22:00,
2013-05-25 04:23:00,72.0,71.4,29.93,East,99,5.0,11.0,98,0.00,,,0.00,Wunderground v.1.15,2013-05-25 09:23:00,
2013-05-25 04:26:00,72.0,71.4,29.93,ESE,104,6.0,11.0,98,0.55,,,0.01,Wunderground v.1.15,2013-05-25 09:26:00,
2013-05-25 04:27:00,71.8,71.2,29.93,ESE,117,5.0,11.0,98,0.44,,,0.02,Wunderground v.1.15,2013-05-25 09:27:00,
2013-05-25 04:28:00,71.8,71.2,29.93,East,88,5.0,11.0,98,0.30,,,0.02,Wunderground v.1.15,2013-05-25 09:28:00,
2013-05-25 04:29:00,71.8,71.2,29.93,East,93,5.0,11.0,98,0.20,,,0.02,Wunderground v.1.15,2013-05-25 09:29:00,
2013-05-25 04:32:00,71.8,71.2,29.94,ESE,116,5.0,6.0,98,0.13,,,0.03,Wunderground v.1.15,2013-05-25 09:32:00,
2013-05-25 04:34:00,71.8,71.2,29.94,East,99,5.0,6.0,98,0.13,,,0.03,Wunderground v.1.15,2013-05-25 09:34:00,
2013-05-25 04:37:00,71.8,71.2,29.94,ENE,71,5.0,6.0,98,0.09,,,0.03,Wunderground v.1.15,2013-05-25 09:37:00,
2013-05-25 04:38:00,71.6,71.0,29.94,ENE,71,5.0,6.0,98,0.08,,,0.03,Wunderground v.1.15,2013-05-25 09:38:00,
2013-05-25 04:39:00,71.6,71.0,29.94,SE,138,4.0,7.0,98,0.07,,,0.03,Wunderground v.1.15,2013-05-25 09:39:00,
2013-05-25 04:43:00,71.3,70.7,29.94,ESE,120,4.0,7.0,98,0.05,,,0.03,Wunderground v.1.15,2013-05-25 09:43:00,
2013-05-25 04:45:00,71.1,70.5,29.94,SE,133,4.0,7.0,98,0.04,,,0.03,Wunderground v.1.15,2013-05-25 09:45:00,
2013-05-25 04:46:00,70.9,70.3,29.92,East,99,5.0,12.0,98,0.04,,,0.03,Wunderground v.1.15,2013-05-25 09:46:00,
2013-05-25 04:47:00,70.8,69.9,29.92,East,97,5.0,12.0,97,0.04,,,0.03,Wunderground v.1.15,2013-05-25 09:47:00,
2013-05-25 04:48:00,70.4,69.5,29.92,ENE,72,6.0,12.0,97,0.00,,,0.03,Wunderground v.1.15,2013-05-25 09:48:00,
2013-05-25 04:49:00,70.3,69.4,29.92,ESE,123,6.0,12.0,97,0.00,,,0.04,Wunderground v.1.15,2013-05-25 09:49:00,
2013-05-25 04:51:00,70.3,69.4,29.92,ESE,110,5.0,5.0,97,0.34,,,0.05,Wunderground v.1.15,2013-05-25 09:51:00,
2013-05-25 04:54:00,70.3,69.4,29.92,SE,130,5.0,8.0,97,0.13,,,0.05,Wunderground v.1.15,2013-05-25 09:54:00,
2013-05-25 04:57:00,70.1,69.2,29.92,ESE,106,4.0,9.0,97,0.74,,,0.08,Wunderground v.1.15,2013-05-25 09:57:00,
2013-05-25 04:58:00,70.1,69.2,29.92,ESE,102,4.0,9.0,97,0.58,,,0.09,Wunderground v.1.15,2013-05-25 09:58:00,
2013-05-25 05:01:00,69.9,69.0,29.92,NE,52,4.0,4.0,97,0.50,,,0.10,Wunderground v.1.15,2013-05-25 10:01:00,
2013-05-25 05:02:00,69.9,69.0,29.92,NNE,21,4.0,5.0,97,0.50,,,0.11,Wunderground v.1.15,2013-05-25 10:02:00,
2013-05-25 05:03:00,69.9,69.0,29.92,NE,47,4.0,10.0,97,0.50,,,0.12,Wunderground v.1.15,2013-05-25 10:03:00,
2013-05-25 05:07:00,69.9,69.0,29.92,East,89,4.0,10.0,97,0.13,,,0.12,Wunderground v.1.15,2013-05-25 10:07:00,
2013-05-25 05:08:00,69.9,69.0,29.92,NE,41,4.0,10.0,97,0.10,,,0.12,Wunderground v.1.15,2013-05-25 10:08:00,
2013-05-25 05:11:00,69.9,69.0,29.92,SE,126,5.0,6.0,97,0.07,,,0.13,Wunderground v.1.15,2013-05-25 10:11:00,
2013-05-25 05:13:00,69.9,69.0,29.92,SE,137,4.0,6.0,97,0.07,,,0.13,Wunderground v.1.15,2013-05-25 10:13:00,
2013-05-25 05:14:00,69.9,69.0,29.92,ESE,110,4.0,7.0,97,0.07,,,0.13,Wunderground v.1.15,2013-05-25 10:14:00,
2013-05-25 05:16:00,69.9,69.0,29.94,SSW,198,4.0,10.0,97,0.50,,,0.16,Wunderground v.1.15,2013-05-25 10:16:00,
2013-05-25 05:19:00,69.9,69.3,29.94,SE,145,6.0,16.0,98,0.68,,,0.20,Wunderground v.1.15,2013-05-25 10:19:00,
2013-05-25 05:21:00,69.9,69.0,29.94,SE,138,5.0,5.0,97,1.05,,,0.24,Wunderground v.1.15,2013-05-25 10:21:00,
2013-05-25 05:25:00,69.8,69.2,29.94,West,260,5.0,11.0,98,0.28,,,0.26,Wunderground v.1.15,2013-05-25 10:25:00,
2013-05-25 05:26:00,69.6,69.0,29.94,SW,220,5.0,11.0,98,0.28,,,0.26,Wunderground v.1.15,2013-05-25 10:26:00,
2013-05-25 05:27:00,69.6,68.7,29.94,WSW,237,5.0,11.0,97,0.20,,,0.26,Wunderground v.1.15,2013-05-25 10:27:00,
2013-05-25 05:33:00,69.8,69.2,29.95,WNW,289,5.0,13.0,98,3.13,,,0.37,Wunderground v.1.15,2013-05-25 10:33:00,
2013-05-25 05:34:00,69.9,69.3,29.95,WNW,298,5.0,13.0,98,0.81,,,0.38,Wunderground v.1.15,2013-05-25 10:34:00,
2013-05-25 05:35:00,70.1,69.5,29.95,WNW,298,5.0,13.0,98,0.47,,,0.39,Wunderground v.1.15,2013-05-25 10:35:00,
2013-05-25 05:38:00,70.3,69.7,29.95,SSE,148,4.0,13.0,98,0.58,,,0.41,Wunderground v.1.15,2013-05-25 10:38:00,
2013-05-25 05:41:00,70.1,69.5,29.95,South,178,4.0,4.0,98,0.35,,,0.44,Wunderground v.1.15,2013-05-25 10:41:00,
2013-05-25 05:42:00,70.1,69.5,29.95,South,178,4.0,4.0,98,0.44,,,0.44,Wunderground v.1.15,2013-05-25 10:42:00,
2013-05-25 05:45:00,70.1,69.5,29.95,ENE,75,2.0,4.0,98,1.05,,,0.48,Wunderground v.1.15,2013-05-25 10:45:00,
2013-05-25 05:47:00,70.1,69.5,29.95,NE,34,2.0,4.0,98,1.16,,,0.51,Wunderground v.1.15,2013-05-25 10:47:00,
2013-05-25 05:48:00,70.1,69.5,29.95,NE,35,2.0,4.0,98,1.23,,,0.55,Wunderground v.1.15,2013-05-25 10:48:00,
2013-05-25 05:49:00,70.1,69.5,29.95,East,83,2.0,5.0,98,1.97,,,0.57,Wunderground v.1.15,2013-05-25 10:49:00,
2013-05-25 05:52:00,70.1,69.5,29.95,NE,38,3.0,6.0,98,0.58,,,0.63,Wunderground v.1.15,2013-05-25 10:52:00,
2013-05-25 05:53:00,70.1,69.5,29.95,NE,48,3.0,6.0,98,0.58,,,0.63,Wunderground v.1.15,2013-05-25 10:53:00,
2013-05-25 05:54:00,70.1,69.5,29.95,NE,47,3.0,6.0,98,0.55,,,0.64,Wunderground v.1.15,2013-05-25 10:54:00,
2013-05-25 05:58:00,70.3,69.7,29.95,NNE,30,4.0,8.0,98,0.57,,,0.68,Wunderground v.1.15,2013-05-25 10:58:00,
2013-05-25 05:59:00,70.1,69.5,29.95,North,354,4.0,8.0,98,1.61,,,0.70,Wunderground v.1.15,2013-05-25 10:59:00,
2013-05-25 06:03:00,69.9,69.3,29.93,North,350,3.0,3.0,98,2.01,,,0.81,Wunderground v.1.15,2013-05-25 11:03:00,
2013-05-25 06:04:00,69.8,69.2,29.93,North,359,3.0,6.0,98,1.85,,,0.84,Wunderground v.1.15,2013-05-25 11:04:00,
2013-05-25 06:06:00,69.6,69.0,29.93,North,10,4.0,7.0,98,2.77,,,0.91,Wunderground v.1.15,2013-05-25 11:06:00,
2013-05-25 06:11:00,69.6,69.0,29.93,NW,309,4.0,4.0,98,0.66,,,0.97,Wunderground v.1.15,2013-05-25 11:11:00,
2013-05-25 06:12:00,69.6,69.0,29.93,NW,325,4.0,5.0,98,0.78,,,0.98,Wunderground v.1.15,2013-05-25 11:12:00,
2013-05-25 06:13:00,69.6,69.0,29.93,NNW,339,4.0,5.0,98,1.83,,,1.00,Wunderground v.1.15,2013-05-25 11:13:00,
2013-05-25 06:18:00,69.4,68.8,29.94,North,0,4.0,5.0,98,0.43,,,1.06,Wunderground v.1.15,2013-05-25 11:18:00,
2013-05-25 06:19:00,69.3,68.7,29.94,North,3,3.0,5.0,98,0.50,,,1.06,Wunderground v.1.15,2013-05-25 11:19:00,
2013-05-25 06:22:00,69.3,68.7,29.94,North,3,2.0,3.0,98,0.87,,,1.11,Wunderground v.1.15,2013-05-25 11:22:00,
2013-05-25 06:23:00,69.3,68.7,29.94,North,3,2.0,3.0,98,0.80,,,1.12,Wunderground v.1.15,2013-05-25 11:23:00,
2013-05-25 06:25:00,69.3,68.7,29.94,North,3,1.0,3.0,98,0.45,,,1.14,Wunderground v.1.15,2013-05-25 11:25:00,
2013-05-25 06:26:00,69.1,68.5,29.94,North,3,1.0,3.0,98,0.67,,,1.15,Wunderground v.1.15,2013-05-25 11:26:00,
2013-05-25 06:27:00,69.1,68.5,29.94,West,271,0.0,5.0,98,0.59,,,1.16,Wunderground v.1.15,2013-05-25 11:27:00,
2013-05-25 06:28:00,69.3,68.7,29.94,West,270,1.0,5.0,98,0.53,,,1.17,Wunderground v.1.15,2013-05-25 11:28:00,
2013-05-25 06:31:00,69.3,68.7,29.97,West,263,1.0,1.0,98,0.98,,,1.22,Wunderground v.1.15,2013-05-25 11:31:00,
2013-05-25 06:32:00,69.3,68.7,29.97,West,263,1.0,1.0,98,2.59,,,1.24,Wunderground v.1.15,2013-05-25 11:32:00,
2013-05-25 06:33:00,69.1,68.5,29.97,West,271,1.0,2.0,98,1.33,,,1.27,Wunderground v.1.15,2013-05-25 11:33:00,
2013-05-25 06:34:00,69.1,68.5,29.97,West,274,2.0,3.0,98,3.35,,,1.33,Wunderground v.1.15,2013-05-25 11:34:00,
2013-05-25 06:37:00,69.1,68.5,29.97,NNW,339,3.0,3.0,98,0.88,,,1.43,Wunderground v.1.15,2013-05-25 11:37:00,
2013-05-25 06:38:00,69.1,68.5,29.97,NNW,344,3.0,5.0,98,0.79,,,1.44,Wunderground v.1.15,2013-05-25 11:38:00,
2013-05-25 06:39:00,69.1,68.5,29.97,ENE,65,3.0,5.0,98,0.61,,,1.45,Wunderground v.1.15,2013-05-25 11:39:00,
2013-05-25 06:44:00,69.4,69.1,29.97,SW,224,4.0,8.0,99,1.33,,,1.62,Wunderground v.1.15,2013-05-25 11:44:00,
2013-05-25 06:46:00,69.4,69.1,29.97,SSE,155,3.0,8.0,99,1.19,,,1.65,Wunderground v.1.15,2013-05-25 11:46:00,
2013-05-25 06:47:00,69.3,69.0,29.97,SSE,155,3.0,8.0,99,1.36,,,1.68,Wunderground v.1.15,2013-05-25 11:47:00,
2013-05-25 06:48:00,69.4,69.1,29.97,ESE,113,3.0,8.0,99,1.26,,,1.70,Wunderground v.1.15,2013-05-25 11:48:00,
2013-05-25 06:52:00,69.4,69.1,29.97,SW,227,2.0,3.0,99,0.71,,,1.76,Wunderground v.1.15,2013-05-25 11:52:00,
2013-05-25 06:53:00,69.6,69.3,29.97,SW,227,2.0,3.0,99,0.74,,,1.78,Wunderground v.1.15,2013-05-25 11:53:00,
2013-05-25 06:54:00,69.6,69.3,29.97,SW,227,1.0,3.0,99,0.97,,,1.79,Wunderground v.1.15,2013-05-25 11:54:00,
2013-05-25 06:56:00,69.4,69.1,29.97,SW,227,1.0,3.0,99,1.39,,,1.83,Wunderground v.1.15,2013-05-25 11:56:00,
2013-05-25 06:57:00,69.4,69.1,29.97,SW,227,1.0,3.0,99,1.10,,,1.85,Wunderground v.1.15,2013-05-25 11:57:00,
2013-05-25 06:59:00,69.6,69.3,29.97,ESE,103,2.0,4.0,99,1.13,,,1.88,Wunderground v.1.15,2013-05-25 11:59:00,
2013-05-25 07:01:00,69.4,69.1,30.01,ESE,103,1.0,2.0,99,0.64,,,1.91,Wunderground v.1.15,2013-05-25 12:01:00,
2013-05-25 07:04:00,69.6,69.3,30.01,NW,309,2.0,5.0,99,2.36,,,1.97,Wunderground v.1.15,2013-05-25 12:04:00,
2013-05-25 07:05:00,69.4,69.1,30.01,WNW,302,2.0,6.0,99,0.69,,,1.98,Wunderground v.1.15,2013-05-25 12:05:00,
2013-05-25 07:07:00,69.4,69.1,30.01,WNW,285,3.0,6.0,99,1.82,,,2.01,Wunderground v.1.15,2013-05-25 12:07:00,
2013-05-25 07:09:00,69.4,69.1,30.01,WNW,287,3.0,6.0,99,2.97,,,2.09,Wunderground v.1.15,2013-05-25 12:09:00,
2013-05-25 07:12:00,69.6,69.3,30.01,WNW,287,3.0,3.0,99,3.51,,,2.23,Wunderground v.1.15,2013-05-25 12:12:00,
2013-05-25 07:13:00,69.6,69.3,30.01,WNW,287,2.0,3.0,99,2.53,,,2.27,Wunderground v.1.15,2013-05-25 12:13:00,
2013-05-25 07:14:00,69.6,69.3,30.01,WNW,287,2.0,3.0,99,3.03,,,2.34,Wunderground v.1.15,2013-05-25 12:14:00,
2013-05-25 07:16:00,69.4,69.1,30.01,WNW,291,1.0,3.0,99,2.53,,,2.41,Wunderground v.1.15,2013-05-25 12:16:00,
2013-05-25 07:21:00,69.4,69.1,30.01,WNW,292,1.0,2.0,99,0.73,,,2.51,Wunderground v.1.15,2013-05-25 12:21:00,
2013-05-25 07:22:00,69.4,69.1,30.01,WNW,292,2.0,3.0,99,0.56,,,2.51,Wunderground v.1.15,2013-05-25 12:22:00,
2013-05-25 07:26:00,69.3,69.0,30.01,WNW,294,2.0,3.0,99,0.26,,,2.53,Wunderground v.1.15,2013-05-25 12:26:00,
2013-05-25 07:27:00,69.3,69.0,30.01,WNW,294,2.0,3.0,99,0.26,,,2.53,Wunderground v.1.15,2013-05-25 12:27:00,
2013-05-25 07:32:00,69.1,68.8,30.01,WNW,294,1.0,1.0,99,0.23,,,2.56,Wunderground v.1.15,2013-05-25 12:32:00,
2013-05-25 07:33:00,69.1,68.8,30.01,WNW,294,1.0,1.0,99,0.23,,,2.56,Wunderground v.1.15,2013-05-25 12:33:00,
2013-05-25 07:36:00,69.3,69.0,30.01,WNW,294,0.0,1.0,99,0.21,,,2.57,Wunderground v.1.15,2013-05-25 12:36:00,
2013-05-25 07:37:00,69.3,69.0,30.01,WNW,294,0.0,1.0,99,0.21,,,2.57,Wunderground v.1.15,2013-05-25 12:37:00,
2013-05-25 07:42:00,69.3,69.0,30.01,WNW,291,0.0,0.0,99,0.53,,,2.62,Wunderground v.1.15,2013-05-25 12:42:00,
2013-05-25 07:44:00,69.3,69.0,30.01,WNW,289,0.0,2.0,99,0.28,,,2.63,Wunderground v.1.15,2013-05-25 12:44:00,
2013-05-25 07:45:00,69.1,68.8,30.01,WNW,289,0.0,2.0,99,0.28,,,2.63,Wunderground v.1.15,2013-05-25 12:45:00,
2013-05-25 07:46:00,69.1,68.8,30.00,WNW,289,0.0,2.0,99,0.26,,,2.64,Wunderground v.1.15,2013-05-25 12:46:00,
2013-05-25 07:51:00,68.8,68.5,30.00,SE,141,1.0,3.0,99,0.32,,,2.66,Wunderground v.1.15,2013-05-25 12:51:00,
2013-05-25 07:52:00,68.8,68.5,30.00,SE,141,1.0,3.0,99,0.29,,,2.67,Wunderground v.1.15,2013-05-25 12:52:00,
2013-05-25 07:53:00,68.8,68.5,30.00,SE,143,2.0,3.0,99,0.29,,,2.67,Wunderground v.1.15,2013-05-25 12:53:00,
2013-05-25 07:55:00,68.6,68.3,30.00,SE,143,2.0,3.0,99,0.23,,,2.68,Wunderground v.1.15,2013-05-25 12:55:00,
2013-05-25 08:01:00,68.6,68.3,30.00,SSE,150,2.0,2.0,99,0.55,,,2.72,Wunderground v.1.15,2013-05-25 13:01:00,
2013-05-25 08:02:00,68.6,68.3,30.00,SSE,150,2.0,2.0,99,0.61,,,2.73,Wunderground v.1.15,2013-05-25 13:02:00,
2013-05-25 08:05:00,68.6,68.3,30.00,SSW,192,3.0,4.0,99,0.41,,,2.76,Wunderground v.1.15,2013-05-25 13:05:00,
2013-05-25 08:06:00,68.6,68.3,30.00,South,176,3.0,4.0,99,0.41,,,2.76,Wunderground v.1.15,2013-05-25 13:06:00,
2013-05-25 08:07:00,68.6,68.3,30.00,South,176,2.0,4.0,99,0.38,,,2.77,Wunderground v.1.15,2013-05-25 13:07:00,
2013-05-25 08:11:00,68.8,68.5,30.00,South,179,2.0,2.0,99,0.19,,,2.78,Wunderground v.1.15,2013-05-25 13:11:00,
2013-05-25 08:12:00,68.8,68.5,30.00,South,179,2.0,2.0,99,0.18,,,2.79,Wunderground v.1.15,2013-05-25 13:12:00,
2013-05-25 08:17:00,68.6,68.3,30.00,South,172,2.0,3.0,99,0.16,,,2.80,Wunderground v.1.15,2013-05-25 13:17:00,
2013-05-25 08:18:00,68.6,68.3,30.00,South,171,2.0,3.0,99,0.24,,,2.81,Wunderground v.1.15,2013-05-25 13:18:00,
2013-05-25 08:19:00,68.8,68.5,30.00,South,171,2.0,3.0,99,0.57,,,2.82,Wunderground v.1.15,2013-05-25 13:19:00,
2013-05-25 08:21:00,68.6,68.3,30.00,South,171,2.0,2.0,99,0.40,,,2.83,Wunderground v.1.15,2013-05-25 13:21:00,
2013-05-25 08:23:00,68.8,68.5,30.00,SE,134,2.0,2.0,99,0.44,,,2.84,Wunderground v.1.15,2013-05-25 13:23:00,
2013-05-25 08:24:00,68.6,68.3,30.00,SE,140,2.0,6.0,99,0.34,,,2.85,Wunderground v.1.15,2013-05-25 13:24:00,
2013-05-25 08:28:00,68.6,68.3,30.00,SE,130,2.0,6.0,99,0.38,,,2.87,Wunderground v.1.15,2013-05-25 13:28:00,
2013-05-25 08:29:00,68.6,68.3,30.00,SE,144,3.0,6.0,99,0.27,,,2.87,Wunderground v.1.15,2013-05-25 13:29:00,
2013-05-25 08:32:00,68.6,68.3,30.01,SSE,155,3.0,4.0,99,0.73,,,2.90,Wunderground v.1.15,2013-05-25 13:32:00,
2013-05-25 08:35:00,68.8,68.5,30.01,SE,141,4.0,5.0,99,0.60,,,2.94,Wunderground v.1.15,2013-05-25 13:35:00,
2013-05-25 08:37:00,68.8,68.5,30.01,South,181,4.0,5.0,99,0.35,,,2.95,Wunderground v.1.15,2013-05-25 13:37:00,
2013-05-25 08:38:00,68.8,68.5,30.01,SSE,147,4.0,5.0,99,0.35,,,2.95,Wunderground v.1.15,2013-05-25 13:38:00,
2013-05-25 08:41:00,68.8,68.5,30.01,South,184,4.0,4.0,99,0.24,,,2.96,Wunderground v.1.15,2013-05-25 13:41:00,
2013-05-25 08:42:00,68.8,68.5,30.01,SSE,167,4.0,5.0,99,0.21,,,2.96,Wunderground v.1.15,2013-05-25 13:42:00,
2013-05-25 08:47:00,68.9,68.6,30.02,South,178,3.0,5.0,99,0.17,,,2.98,Wunderground v.1.15,2013-05-25 13:47:00,
2013-05-25 08:48:00,68.9,68.6,30.02,South,185,3.0,5.0,99,0.17,,,2.98,Wunderground v.1.15,2013-05-25 13:48:00,
2013-05-25 08:53:00,68.9,68.6,30.02,South,182,3.0,6.0,99,0.13,,,2.99,Wunderground v.1.15,2013-05-25 13:53:00,
2013-05-25 08:54:00,68.9,68.6,30.02,South,182,3.0,6.0,99,0.23,,,3.00,Wunderground v.1.15,2013-05-25 13:54:00,
2013-05-25 08:55:00,68.9,68.6,30.02,South,182,2.0,6.0,99,0.23,,,3.00,Wunderground v.1.15,2013-05-25 13:55:00,
2013-05-25 08:59:00,68.9,68.6,30.02,South,182,2.0,6.0,99,0.42,,,3.02,Wunderground v.1.15,2013-05-25 13:59:00,
2013-05-25 09:01:00,68.8,68.5,30.02,South,184,2.0,2.0,99,0.34,,,3.03,Wunderground v.1.15,2013-05-25 14:01:00,
2013-05-25 09:03:00,68.8,68.5,30.02,South,184,1.0,2.0,99,0.33,,,3.04,Wunderground v.1.15,2013-05-25 14:03:00,
2013-05-25 09:07:00,68.8,68.5,30.02,South,189,2.0,5.0,99,0.18,,,3.05,Wunderground v.1.15,2013-05-25 14:07:00,
2013-05-25 09:08:00,68.8,68.5,30.02,SSW,192,2.0,5.0,99,0.18,,,3.05,Wunderground v.1.15,2013-05-25 14:08:00,
2013-05-25 09:09:00,68.8,68.5,30.02,SSW,192,2.0,5.0,99,0.24,,,3.06,Wunderground v.1.15,2013-05-25 14:09:00,
2013-05-25 09:12:00,68.8,68.5,30.02,SSW,192,1.0,3.0,99,0.21,,,3.07,Wunderground v.1.15,2013-05-25 14:12:00,
2013-05-25 09:13:00,68.8,68.5,30.02,SSW,192,1.0,3.0,99,0.21,,,3.07,Wunderground v.1.15,2013-05-25 14:13:00,
2013-05-25 09:17:00,68.8,68.5,30.02,SSW,192,1.0,3.0,99,0.20,,,3.09,Wunderground v.1.15,2013-05-25 14:17:00,
2013-05-25 09:18:00,68.8,68.5,30.02,SSW,192,1.0,3.0,99,0.20,,,3.09,Wunderground v.1.15,2013-05-25 14:18:00,
2013-05-25 09:19:00,68.8,68.5,30.02,SSW,192,1.0,3.0,99,0.20,,,3.09,Wunderground v.1.15,2013-05-25 14:19:00,
2013-05-25 09:21:00,68.8,68.5,30.02,SSW,192,1.0,1.0,99,0.26,,,3.10,Wunderground v.1.15,2013-05-25 14:21:00,
2013-05-25 09:24:00,68.8,68.5,30.02,SSW,192,1.0,1.0,99,0.21,,,3.11,Wunderground v.1.15,2013-05-25 14:24:00,
2013-05-25 09:27:00,68.8,68.5,30.02,SSW,192,1.0,2.0,99,0.24,,,3.12,Wunderground v.1.15,2013-05-25 14:27:00,
2013-05-25 09:28:00,68.9,68.6,30.02,SSW,192,1.0,2.0,99,0.20,,,3.12,Wunderground v.1.15,2013-05-25 14:28:00,
2013-05-25 09:29:00,68.9,68.6,30.02,SSW,192,1.0,2.0,99,0.20,,,3.13,Wunderground v.1.15,2013-05-25 14:29:00,
2013-05-25 09:32:00,68.9,68.6,30.03,SSW,193,0.0,2.0,99,0.23,,,3.14,Wunderground v.1.15,2013-05-25 14:32:00,
2013-05-25 09:33:00,68.8,68.5,30.03,SSW,193,0.0,3.0,99,0.23,,,3.14,Wunderground v.1.15,2013-05-25 14:33:00,
2013-05-25 09:37:00,68.8,68.5,30.03,SSW,206,1.0,5.0,99,0.11,,,3.15,Wunderground v.1.15,2013-05-25 14:37:00,
2013-05-25 09:38:00,68.8,68.5,30.03,SSW,206,2.0,5.0,99,0.11,,,3.15,Wunderground v.1.15,2013-05-25 14:38:00,
2013-05-25 09:41:00,68.6,68.3,30.03,South,186,3.0,7.0,99,0.22,,,3.16,Wunderground v.1.15,2013-05-25 14:41:00,
2013-05-25 09:42:00,68.6,68.3,30.03,South,171,3.0,7.0,99,0.22,,,3.16,Wunderground v.1.15,2013-05-25 14:42:00,
2013-05-25 09:43:00,68.6,68.3,30.03,SSE,164,4.0,7.0,99,0.22,,,3.17,Wunderground v.1.15,2013-05-25 14:43:00,
2013-05-25 09:45:00,68.6,68.3,30.03,SSE,164,4.0,7.0,99,0.25,,,3.18,Wunderground v.1.15,2013-05-25 14:45:00,
2013-05-25 09:46:00,68.6,68.3,30.05,SSE,168,3.0,7.0,99,0.25,,,3.18,Wunderground v.1.15,2013-05-25 14:46:00,
2013-05-25 09:49:00,68.8,68.5,30.05,SSE,165,3.0,7.0,99,0.17,,,3.19,Wunderground v.1.15,2013-05-25 14:49:00,
2013-05-25 09:52:00,68.6,68.3,30.05,SSE,158,3.0,5.0,99,0.14,,,3.19,Wunderground v.1.15,2013-05-25 14:52:00,
2013-05-25 09:53:00,68.6,68.3,30.05,SSE,152,3.0,6.0,99,0.14,,,3.20,Wunderground v.1.15,2013-05-25 14:53:00,
2013-05-25 09:58:00,68.6,68.3,30.05,South,191,3.0,8.0,99,0.28,,,3.22,Wunderground v.1.15,2013-05-25 14:58:00,
2013-05-25 09:59:00,68.6,68.3,30.05,SSW,209,4.0,8.0,99,0.28,,,3.22,Wunderground v.1.15,2013-05-25 14:59:00,
2013-05-25 10:04:00,68.6,68.3,30.05,South,176,4.0,4.0,99,0.24,,,3.24,Wunderground v.1.15,2013-05-25 15:04:00,
2013-05-25 10:06:00,68.6,68.3,30.05,South,174,4.0,4.0,99,0.18,,,3.25,Wunderground v.1.15,2013-05-25 15:06:00,
2013-05-25 10:09:00,68.6,68.3,30.05,South,174,2.0,4.0,99,0.27,,,3.26,Wunderground v.1.15,2013-05-25 15:09:00,
2013-05-25 10:11:00,68.4,68.1,30.05,SSE,165,2.0,2.0,99,0.19,,,3.27,Wunderground v.1.15,2013-05-25 15:11:00,
2013-05-25 10:12:00,68.4,68.1,30.05,SSE,165,2.0,2.0,99,0.19,,,3.27,Wunderground v.1.15,2013-05-25 15:12:00,
2013-05-25 10:13:00,68.4,68.1,30.05,SSE,162,1.0,3.0,99,0.19,,,3.27,Wunderground v.1.15,2013-05-25 15:13:00,
2013-05-25 10:15:00,68.4,68.1,30.05,SSE,158,1.0,3.0,99,0.15,,,3.28,Wunderground v.1.15,2013-05-25 15:15:00,
2013-05-25 10:16:00,68.4,68.1,30.04,SSE,150,1.0,6.0,99,0.15,,,3.28,Wunderground v.1.15,2013-05-25 15:16:00,
2013-05-25 10:19:00,68.3,68.0,30.04,SSE,150,2.0,6.0,99,0.19,,,3.29,Wunderground v.1.15,2013-05-25 15:19:00,
2013-05-25 10:21:00,68.3,68.0,30.04,SSE,155,2.0,4.0,99,0.31,,,3.30,Wunderground v.1.15,2013-05-25 15:21:00,
2013-05-25 10:22:00,68.3,68.0,30.04,SSE,160,2.0,4.0,99,0.19,,,3.30,Wunderground v.1.15,2013-05-25 15:22:00,
2013-05-25 10:24:00,68.3,68.0,30.04,South,172,3.0,4.0,99,0.19,,,3.31,Wunderground v.1.15,2013-05-25 15:24:00,
2013-05-25 10:28:00,68.1,67.8,30.04,SSE,165,2.0,4.0,99,0.18,,,3.33,Wunderground v.1.15,2013-05-25 15:28:00,
2013-05-25 10:29:00,68.1,67.8,30.04,SSE,164,2.0,4.0,99,0.18,,,3.33,Wunderground v.1.15,2013-05-25 15:29:00,
2013-05-25 10:32:00,68.3,68.0,30.04,SE,136,2.0,5.0,99,0.19,,,3.34,Wunderground v.1.15,2013-05-25 15:32:00,
2013-05-25 10:33:00,68.3,68.0,30.04,SE,136,2.0,5.0,99,0.19,,,3.34,Wunderground v.1.15,2013-05-25 15:33:00,
2013-05-25 10:35:00,68.3,68.0,30.04,ESE,116,2.0,6.0,99,0.14,,,3.34,Wunderground v.1.15,2013-05-25 15:35:00,
2013-05-25 10:36:00,68.3,68.0,30.04,ESE,117,3.0,6.0,99,0.12,,,3.35,Wunderground v.1.15,2013-05-25 15:36:00,
2013-05-25 10:37:00,68.3,68.0,30.04,ESE,119,3.0,6.0,99,0.12,,,3.35,Wunderground v.1.15,2013-05-25 15:37:00,
2013-05-25 10:38:00,68.3,68.0,30.04,ESE,119,3.0,6.0,99,0.12,,,3.35,Wunderground v.1.15,2013-05-25 15:38:00,
2013-05-25 10:39:00,68.4,68.1,30.04,ESE,120,2.0,6.0,99,0.12,,,3.35,Wunderground v.1.15,2013-05-25 15:39:00,
2013-05-25 10:43:00,68.4,68.1,30.04,ESE,123,2.0,4.0,99,0.11,,,3.36,Wunderground v.1.15,2013-05-25 15:43:00,
2013-05-25 10:44:00,68.4,68.1,30.04,ESE,123,2.0,4.0,99,0.11,,,3.36,Wunderground v.1.15,2013-05-25 15:44:00,
2013-05-25 10:47:00,68.6,68.3,30.04,ESE,123,1.0,4.0,99,0.11,,,3.36,Wunderground v.1.15,2013-05-25 15:47:00,
2013-05-25 10:48:00,68.8,68.5,30.04,ESE,123,1.0,4.0,99,0.09,,,3.36,Wunderground v.1.15,2013-05-25 15:48:00,
2013-05-25 10:49:00,68.6,68.3,30.04,South,189,1.0,4.0,99,0.08,,,3.36,Wunderground v.1.15,2013-05-25 15:49:00,
2013-05-25 10:51:00,68.8,68.5,30.04,South,185,1.0,1.0,99,0.06,,,3.36,Wunderground v.1.15,2013-05-25 15:51:00,
2013-05-25 10:54:00,68.8,68.5,30.04,SSE,147,2.0,4.0,99,0.05,,,3.36,Wunderground v.1.15,2013-05-25 15:54:00,
2013-05-25 10:56:00,68.9,68.6,30.04,SSE,147,2.0,4.0,99,0.04,,,3.36,Wunderground v.1.15,2013-05-25 15:56:00,
2013-05-25 10:57:00,68.9,68.6,30.04,SE,145,2.0,4.0,99,0.04,,,3.36,Wunderground v.1.15,2013-05-25 15:57:00,
2013-05-25 10:58:00,69.1,68.8,30.04,SE,145,2.0,4.0,99,0.04,,,3.36,Wunderground v.1.15,2013-05-25 15:58:00,
2013-05-25 11:02:00,69.4,69.1,30.04,ESE,123,1.0,2.0,99,0.00,,,3.36,Wunderground v.1.15,2013-05-25 16:02:00,
2013-05-25 11:03:00,69.4,69.1,30.04,ESE,123,1.0,3.0,99,0.00,,,3.36,Wunderground v.1.15,2013-05-25 16:03:00,
2013-05-25 11:04:00,69.4,69.1,30.04,ESE,123,1.0,3.0,99,0.00,,,3.36,Wunderground v.1.15,2013-05-25 16:04:00,
2013-05-25 11:08:00,69.4,69.1,30.04,SSE,155,3.0,7.0,99,0.00,,,3.36,Wunderground v.1.15,2013-05-25 16:08:00,
2013-05-25 11:09:00,69.6,69.3,30.04,ESE,123,3.0,7.0,99,0.00,,,3.36,Wunderground v.1.15,2013-05-25 16:09:00,
2013-05-25 11:11:00,69.6,69.3,30.04,SSE,165,4.0,4.0,99,0.00,,,3.36,Wunderground v.1.15,2013-05-25 16:11:00,
2013-05-25 11:12:00,69.8,69.5,30.04,SSE,157,4.0,4.0,99,0.00,,,3.36,Wunderground v.1.15,2013-05-25 16:12:00,
2013-05-25 11:14:00,69.8,69.5,30.04,SSE,148,4.0,4.0,99,0.00,,,3.36,Wunderground v.1.15,2013-05-25 16:14:00,
2013-05-25 11:15:00,69.8,69.5,30.04,SSE,148,4.0,4.0,99,0.00,,,3.36,Wunderground v.1.15,2013-05-25 16:15:00,
2013-05-25 11:17:00,69.9,69.6,30.03,SSE,152,3.0,4.0,99,0.00,,,3.36,Wunderground v.1.15,2013-05-25 16:17:00,
2013-05-25 11:19:00,69.9,69.6,30.03,SSE,158,3.0,5.0,99,0.00,,,3.36,Wunderground v.1.15,2013-05-25 16:19:00,
2013-05-25 11:22:00,70.1,69.8,30.03,SE,141,3.0,3.0,99,0.00,,,3.36,Wunderground v.1.15,2013-05-25 16:22:00,
2013-05-25 11:25:00,70.1,69.8,30.03,SE,143,3.0,5.0,99,0.00,,,3.36,Wunderground v.1.15,2013-05-25 16:25:00,
2013-05-25 11:29:00,70.3,70.0,30.03,SSE,150,3.0,5.0,99,0.00,,,3.36,Wunderground v.1.15,2013-05-25 16:29:00,
2013-05-25 11:31:00,70.6,70.3,30.03,SSE,147,3.0,3.0,99,0.00,,,3.36,Wunderground v.1.15,2013-05-25 16:31:00,
2013-05-25 11:34:00,70.9,70.6,30.03,SE,145,3.0,6.0,99,0.00,,,3.36,Wunderground v.1.15,2013-05-25 16:34:00,
2013-05-25 11:36:00,70.9,70.6,30.03,SSE,154,3.0,8.0,99,0.00,,,3.36,Wunderground v.1.15,2013-05-25 16:36:00,
2013-05-25 11:37:00,70.9,70.6,30.03,SSE,161,3.0,8.0,99,0.00,,,3.36,Wunderground v.1.15,2013-05-25 16:37:00,
2013-05-25 11:38:00,70.9,70.6,30.03,ESE,119,4.0,8.0,99,0.00,,,3.36,Wunderground v.1.15,2013-05-25 16:38:00,
2013-05-25 11:42:00,71.1,70.8,30.03,ESE,112,5.0,5.0,99,0.00,,,3.36,Wunderground v.1.15,2013-05-25 16:42:00,
2013-05-25 11:43:00,71.3,71.0,30.03,ESE,119,5.0,7.0,99,0.00,,,3.36,Wunderground v.1.15,2013-05-25 16:43:00,
2013-05-25 11:45:00,71.3,71.0,30.03,ESE,123,5.0,8.0,99,0.00,,,3.36,Wunderground v.1.15,2013-05-25 16:45:00,
2013-05-25 11:47:00,71.3,71.0,30.03,ESE,110,5.0,8.0,99,0.00,,,3.36,Wunderground v.1.15,2013-05-25 16:47:00,
2013-05-25 11:48:00,71.3,71.0,30.03,South,186,6.0,9.0,99,0.00,,,3.36,Wunderground v.1.15,2013-05-25 16:48:00,
2013-05-25 11:52:00,71.1,70.8,30.03,SSE,150,7.0,7.0,99,0.00,,,3.36,Wunderground v.1.15,2013-05-25 16:52:00,
2013-05-25 11:55:00,71.3,71.0,30.03,ESE,121,7.0,8.0,99,0.00,,,3.36,Wunderground v.1.15,2013-05-25 16:55:00,
2013-05-25 11:56:00,71.3,71.0,30.03,ESE,114,7.0,8.0,99,0.00,,,3.36,Wunderground v.1.15,2013-05-25 16:56:00,
2013-05-25 11:57:00,71.1,70.8,30.03,ESE,110,7.0,8.0,99,0.00,,,3.36,Wunderground v.1.15,2013-05-25 16:57:00,
2013-05-25 11:58:00,71.3,71.0,30.03,ESE,109,7.0,8.0,99,0.00,,,3.36,Wunderground v.1.15,2013-05-25 16:58:00,
2013-05-25 11:59:00,71.3,71.0,30.03,ESE,109,6.0,8.0,99,0.00,,,3.36,Wunderground v.1.15,2013-05-25 16:59:00,
2013-05-25 12:02:00,71.3,71.0,30.04,SE,126,5.0,6.0,99,0.00,,,3.36,Wunderground v.1.15,2013-05-25 17:02:00,
2013-05-25 12:03:00,71.3,71.0,30.04,ESE,113,6.0,7.0,99,0.00,,,3.36,Wunderground v.1.15,2013-05-25 17:03:00,
2013-05-25 12:04:00,71.1,70.8,30.04,East,85,6.0,9.0,99,0.00,,,3.36,Wunderground v.1.15,2013-05-25 17:04:00,
2013-05-25 12:06:00,71.1,70.8,30.04,ESE,109,6.0,9.0,99,0.00,,,3.36,Wunderground v.1.15,2013-05-25 17:06:00,
2013-05-25 12:08:00,71.3,71.0,30.04,ESE,112,6.0,9.0,99,0.00,,,3.36,Wunderground v.1.15,2013-05-25 17:08:00,
2013-05-25 12:09:00,71.1,70.8,30.04,SE,136,6.0,9.0,99,0.00,,,3.36,Wunderground v.1.15,2013-05-25 17:09:00,
2013-05-25 12:11:00,71.3,71.0,30.04,SE,124,6.0,6.0,99,0.00,,,3.36,Wunderground v.1.15,2013-05-25 17:11:00,
2013-05-25 12:13:00,71.3,71.0,30.04,SE,134,6.0,6.0,99,0.00,,,3.36,Wunderground v.1.15,2013-05-25 17:13:00,
2013-05-25 12:14:00,71.5,71.2,30.04,East,99,5.0,6.0,99,0.00,,,3.36,Wunderground v.1.15,2013-05-25 17:14:00,
2013-05-25 12:17:00,71.5,71.2,30.03,ESE,120,4.0,6.0,99,0.00,,,3.36,Wunderground v.1.15,2013-05-25 17:17:00,
2013-05-25 12:18:00,71.5,71.2,30.03,ESE,123,4.0,6.0,99,0.00,,,3.36,Wunderground v.1.15,2013-05-25 17:18:00,
2013-05-25 12:19:00,71.5,71.2,30.03,ESE,112,4.0,6.0,99,0.00,,,3.36,Wunderground v.1.15,2013-05-25 17:19:00,
2013-05-25 12:23:00,71.5,71.2,30.03,ESE,110,4.0,7.0,99,0.00,,,3.36,Wunderground v.1.15,2013-05-25 17:23:00,
2013-05-25 12:25:00,71.5,71.2,30.03,East,85,4.0,11.0,99,0.00,,,3.36,Wunderground v.1.15,2013-05-25 17:25:00,
2013-05-25 12:26:00,71.3,71.0,30.03,SE,134,5.0,11.0,99,0.00,,,3.36,Wunderground v.1.15,2013-05-25 17:26:00,
2013-05-25 12:28:00,71.3,71.0,30.03,East,93,5.0,11.0,99,0.00,,,3.36,Wunderground v.1.15,2013-05-25 17:28:00,
2013-05-25 12:29:00,71.5,71.2,30.03,ESE,113,5.0,11.0,99,0.00,,,3.36,Wunderground v.1.15,2013-05-25 17:29:00,
2013-05-25 12:31:00,71.5,71.2,30.02,East,79,5.0,5.0,99,0.00,,,3.36,Wunderground v.1.15,2013-05-25 17:31:00,
2013-05-25 12:32:00,71.5,71.2,30.02,ESE,113,5.0,5.0,99,0.00,,,3.36,Wunderground v.1.15,2013-05-25 17:32:00,
2013-05-25 12:33:00,71.3,71.0,30.02,ESE,116,6.0,6.0,99,0.00,,,3.36,Wunderground v.1.15,2013-05-25 17:33:00,
2013-05-25 12:36:00,71.1,70.5,30.02,SSE,148,6.0,10.0,98,0.00,,,3.36,Wunderground v.1.15,2013-05-25 17:36:00,
2013-05-25 12:37:00,70.9,70.3,30.02,ESE,114,6.0,10.0,98,0.00,,,3.36,Wunderground v.1.15,2013-05-25 17:37:00,
2013-05-25 12:41:00,71.3,70.7,30.02,East,99,6.0,6.0,98,0.00,,,3.36,Wunderground v.1.15,2013-05-25 17:41:00,
2013-05-25 12:42:00,71.5,70.9,30.02,ESE,103,6.0,6.0,98,0.00,,,3.36,Wunderground v.1.15,2013-05-25 17:42:00,
2013-05-25 12:43:00,71.5,70.9,30.02,ESE,119,6.0,6.0,98,0.00,,,3.36,Wunderground v.1.15,2013-05-25 17:43:00,
2013-05-25 12:46:00,71.3,70.7,30.02,ESE,109,6.0,8.0,98,0.00,,,3.36,Wunderground v.1.15,2013-05-25 17:46:00,
2013-05-25 12:48:00,71.3,70.7,30.02,SE,141,5.0,8.0,98,0.00,,,3.36,Wunderground v.1.15,2013-05-25 17:48:00,
2013-05-25 12:49:00,71.3,70.7,30.02,ESE,123,5.0,8.0,98,0.00,,,3.36,Wunderground v.1.15,2013-05-25 17:49:00,
2013-05-25 12:52:00,71.1,70.2,30.02,SSE,154,6.0,6.0,97,0.00,,,3.36,Wunderground v.1.15,2013-05-25 17:52:00,
2013-05-25 12:53:00,70.9,70.0,30.02,SE,141,6.0,6.0,97,0.00,,,3.36,Wunderground v.1.15,2013-05-25 17:53:00,
2013-05-25 12:54:00,71.1,70.2,30.02,SSE,155,6.0,6.0,97,0.00,,,3.36,Wunderground v.1.15,2013-05-25 17:54:00,
2013-05-25 12:55:00,71.1,70.2,30.02,SSE,154,6.0,6.0,97,0.00,,,3.36,Wunderground v.1.15,2013-05-25 17:55:00,
2013-05-25 13:01:00,70.8,69.6,30.02,SSE,151,7.0,12.0,96,0.00,,,3.36,Wunderground v.1.15,2013-05-25 18:01:00,
2013-05-25 13:02:00,70.8,69.6,30.02,SE,128,7.0,12.0,96,0.00,,,3.36,Wunderground v.1.15,2013-05-25 18:02:00,
2013-05-25 13:04:00,70.6,69.4,30.02,SSE,151,8.0,12.0,96,0.00,,,3.36,Wunderground v.1.15,2013-05-25 18:04:00,
2013-05-25 13:07:00,70.9,69.7,30.02,ESE,121,8.0,12.0,96,0.00,,,3.36,Wunderground v.1.15,2013-05-25 18:07:00,
2013-05-25 13:08:00,71.1,69.9,30.02,SE,126,8.0,12.0,96,0.00,,,3.36,Wunderground v.1.15,2013-05-25 18:08:00,
2013-05-25 13:09:00,71.1,69.9,30.02,ESE,121,8.0,12.0,96,0.00,,,3.36,Wunderground v.1.15,2013-05-25 18:09:00,
2013-05-25 13:12:00,71.1,69.6,30.02,ESE,123,7.0,7.0,95,0.00,,,3.36,Wunderground v.1.15,2013-05-25 18:12:00,
2013-05-25 13:15:00,71.3,69.5,30.02,SSE,147,6.0,7.0,94,0.00,,,3.36,Wunderground v.1.15,2013-05-25 18:15:00,
2013-05-25 13:16:00,71.3,69.5,30.02,SE,134,6.0,7.0,94,0.00,,,3.36,Wunderground v.1.15,2013-05-25 18:16:00,
2013-05-25 13:17:00,71.5,69.7,30.02,SSE,147,6.0,8.0,94,0.00,,,3.36,Wunderground v.1.15,2013-05-25 18:17:00,
2013-05-25 13:21:00,71.5,69.4,30.02,SSE,148,7.0,7.0,93,0.00,,,3.36,Wunderground v.1.15,2013-05-25 18:21:00,
2013-05-25 13:22:00,71.5,69.4,30.02,ESE,103,7.0,10.0,93,0.00,,,3.36,Wunderground v.1.15,2013-05-25 18:22:00,
2013-05-25 13:24:00,71.6,69.2,30.02,SE,124,7.0,10.0,92,0.00,,,3.36,Wunderground v.1.15,2013-05-25 18:24:00,
2013-05-25 13:28:00,72.1,69.6,30.02,ESE,114,7.0,10.0,92,0.00,,,3.36,Wunderground v.1.15,2013-05-25 18:28:00,
2013-05-25 13:29:00,72.1,69.6,30.02,SE,124,7.0,10.0,92,0.00,,,3.36,Wunderground v.1.15,2013-05-25 18:29:00,
2013-05-25 13:31:00,72.3,69.5,30.02,SE,136,7.0,7.0,91,0.00,,,3.36,Wunderground v.1.15,2013-05-25 18:31:00,
2013-05-25 13:33:00,72.3,69.5,30.01,SE,143,6.0,10.0,91,0.00,,,3.36,Wunderground v.1.15,2013-05-25 18:33:00,
2013-05-25 13:34:00,72.5,69.4,30.01,ESE,123,7.0,10.0,90,0.00,,,3.36,Wunderground v.1.15,2013-05-25 18:34:00,
2013-05-25 13:38:00,72.5,69.4,30.01,SSE,150,7.0,11.0,90,0.00,,,3.36,Wunderground v.1.15,2013-05-25 18:38:00,
2013-05-25 13:39:00,72.7,69.6,30.01,SE,131,7.0,11.0,90,0.00,,,3.36,Wunderground v.1.15,2013-05-25 18:39:00,
2013-05-25 13:42:00,73.0,69.9,30.01,SE,137,7.0,7.0,90,0.00,,,3.36,Wunderground v.1.15,2013-05-25 18:42:00,
2013-05-25 13:44:00,73.0,69.6,30.01,SE,138,7.0,7.0,89,0.00,,,3.36,Wunderground v.1.15,2013-05-25 18:44:00,
2013-05-25 13:46:00,73.2,69.8,30.01,ESE,119,7.0,7.0,89,0.00,,,3.36,Wunderground v.1.15,2013-05-25 18:46:00,
2013-05-25 13:47:00,73.2,69.8,30.00,SE,141,7.0,9.0,89,0.00,,,3.36,Wunderground v.1.15,2013-05-25 18:47:00,
2013-05-25 13:48:00,73.3,69.9,30.00,SE,136,7.0,9.0,89,0.00,,,3.36,Wunderground v.1.15,2013-05-25 18:48:00,
2013-05-25 13:49:00,73.3,69.9,30.00,ESE,104,7.0,9.0,89,0.00,,,3.36,Wunderground v.1.15,2013-05-25 18:49:00,
2013-05-25 13:54:00,73.3,69.5,30.00,East,100,8.0,12.0,88,0.00,,,3.36,Wunderground v.1.15,2013-05-25 18:54:00,
2013-05-25 13:55:00,73.5,69.7,30.00,ESE,123,8.0,12.0,88,0.00,,,3.36,Wunderground v.1.15,2013-05-25 18:55:00,
2013-05-25 13:57:00,73.5,69.4,30.00,SE,140,8.0,12.0,87,0.00,,,3.36,Wunderground v.1.15,2013-05-25 18:57:00,
2013-05-25 13:59:00,73.5,69.4,30.00,East,99,8.0,12.0,87,0.00,,,3.36,Wunderground v.1.15,2013-05-25 18:59:00,
2013-05-25 14:01:00,73.5,69.1,30.00,ESE,109,8.0,8.0,86,0.00,,,3.36,Wunderground v.1.15,2013-05-25 19:01:00,
2013-05-25 14:03:00,73.5,69.1,30.00,SE,144,8.0,10.0,86,0.00,,,3.36,Wunderground v.1.15,2013-05-25 19:03:00,
2013-05-25 14:05:00,73.7,69.2,30.00,ESE,121,9.0,14.0,86,0.00,,,3.36,Wunderground v.1.15,2013-05-25 19:05:00,
2013-05-25 14:08:00,73.9,69.1,30.00,SSE,155,10.0,14.0,85,0.00,,,3.36,Wunderground v.1.15,2013-05-25 19:08:00,
2013-05-25 14:09:00,74.0,69.2,30.00,SSE,147,11.0,14.0,85,0.00,,,3.36,Wunderground v.1.15,2013-05-25 19:09:00,
2013-05-25 14:12:00,74.4,69.6,30.00,SSE,148,10.0,11.0,85,0.00,,,3.36,Wunderground v.1.15,2013-05-25 19:12:00,
2013-05-25 14:13:00,74.6,69.4,30.00,ESE,114,9.0,16.0,84,0.00,,,3.36,Wunderground v.1.15,2013-05-25 19:13:00,
2013-05-25 14:15:00,74.6,69.1,30.00,South,171,9.0,16.0,83,0.00,,,3.36,Wunderground v.1.15,2013-05-25 19:15:00,
2013-05-25 14:17:00,74.9,69.4,29.99,SE,134,8.0,16.0,83,0.00,,,3.36,Wunderground v.1.15,2013-05-25 19:17:00,
2013-05-25 14:18:00,74.9,69.0,29.99,SE,136,8.0,16.0,82,0.00,,,3.36,Wunderground v.1.15,2013-05-25 19:18:00,
2013-05-25 14:24:00,75.1,68.5,29.99,ESE,123,8.0,13.0,80,0.00,,,3.36,Wunderground v.1.15,2013-05-25 19:24:00,
2013-05-25 14:25:00,75.1,68.9,29.99,ESE,102,8.0,13.0,81,0.00,,,3.36,Wunderground v.1.15,2013-05-25 19:25:00,
2013-05-25 14:27:00,75.3,69.1,29.99,ESE,120,8.0,13.0,81,0.00,,,3.36,Wunderground v.1.15,2013-05-25 19:27:00,
2013-05-25 14:31:00,75.4,68.4,29.99,ESE,109,8.0,16.0,79,0.00,,,3.36,Wunderground v.1.15,2013-05-25 19:31:00,
2013-05-25 14:32:00,75.4,68.4,29.99,ESE,109,8.0,16.0,79,0.00,,,3.36,Wunderground v.1.15,2013-05-25 19:32:00,
2013-05-25 14:37:00,75.4,68.4,29.99,ESE,120,9.0,16.0,79,0.00,,,3.36,Wunderground v.1.15,2013-05-25 19:37:00,
2013-05-25 14:43:00,75.8,68.8,29.99,SE,140,9.0,12.0,79,0.00,,,3.36,Wunderground v.1.15,2013-05-25 19:43:00,
2013-05-25 14:44:00,75.6,68.6,29.99,ESE,120,9.0,12.0,79,0.00,,,3.36,Wunderground v.1.15,2013-05-25 19:44:00,
2013-05-25 14:45:00,75.6,68.6,29.99,ESE,119,9.0,12.0,79,0.00,,,3.36,Wunderground v.1.15,2013-05-25 19:45:00,
2013-05-25 14:48:00,75.6,68.6,29.98,ESE,123,9.0,12.0,79,0.00,,,3.36,Wunderground v.1.15,2013-05-25 19:48:00,
2013-05-25 14:49:00,75.4,68.4,29.98,SE,141,9.0,12.0,79,0.00,,,3.36,Wunderground v.1.15,2013-05-25 19:49:00,
2013-05-25 14:51:00,75.6,68.6,29.98,SE,138,9.0,10.0,79,0.00,,,3.36,Wunderground v.1.15,2013-05-25 19:51:00,
2013-05-25 14:52:00,75.6,68.6,29.98,ESE,113,9.0,10.0,79,0.00,,,3.36,Wunderground v.1.15,2013-05-25 19:52:00,
2013-05-25 14:53:00,75.8,68.8,29.98,ESE,104,9.0,10.0,79,0.00,,,3.36,Wunderground v.1.15,2013-05-25 19:53:00,
2013-05-25 14:55:00,75.6,68.3,29.98,ESE,114,8.0,11.0,78,0.00,,,3.36,Wunderground v.1.15,2013-05-25 19:55:00,
2013-05-25 14:57:00,75.8,68.4,29.98,ESE,112,8.0,11.0,78,0.00,,,3.36,Wunderground v.1.15,2013-05-25 19:57:00,
2013-05-25 14:58:00,75.8,68.4,29.98,SE,128,8.0,11.0,78,0.00,,,3.36,Wunderground v.1.15,2013-05-25 19:58:00,
2013-05-25 15:01:00,76.0,68.6,29.98,SE,130,8.0,9.0,78,0.00,,,3.36,Wunderground v.1.15,2013-05-25 20:01:00,
2013-05-25 15:04:00,76.0,68.3,29.97,ESE,113,9.0,11.0,77,0.00,,,3.36,Wunderground v.1.15,2013-05-25 20:04:00,
2013-05-25 15:05:00,76.0,68.6,29.97,SE,124,9.0,11.0,78,0.00,,,3.36,Wunderground v.1.15,2013-05-25 20:05:00,
2013-05-25 15:09:00,76.7,68.6,29.97,SE,128,8.0,11.0,76,0.00,,,3.36,Wunderground v.1.15,2013-05-25 20:09:00,
2013-05-25 15:11:00,76.5,68.0,29.97,ESE,123,8.0,8.0,75,0.00,,,3.36,Wunderground v.1.15,2013-05-25 20:11:00,
2013-05-25 15:12:00,76.1,66.8,29.97,SE,141,9.0,11.0,73,0.00,,,3.36,Wunderground v.1.15,2013-05-25 20:12:00,
2013-05-25 15:14:00,76.1,67.2,29.97,SE,136,8.0,11.0,74,0.00,,,3.36,Wunderground v.1.15,2013-05-25 20:14:00,
2013-05-25 15:16:00,76.0,67.1,29.97,SE,137,8.0,11.0,74,0.00,,,3.36,Wunderground v.1.15,2013-05-25 20:16:00,
2013-05-25 15:17:00,76.0,67.1,29.97,SE,134,8.0,13.0,74,0.00,,,3.36,Wunderground v.1.15,2013-05-25 20:17:00,
2013-05-25 15:21:00,76.1,66.8,29.97,SE,137,8.0,14.0,73,0.00,,,3.36,Wunderground v.1.15,2013-05-25 20:21:00,
2013-05-25 15:22:00,76.0,66.3,29.97,SE,133,8.0,14.0,72,0.00,,,3.36,Wunderground v.1.15,2013-05-25 20:22:00,
2013-05-25 15:24:00,76.0,66.3,29.97,East,97,8.0,14.0,72,0.00,,,3.36,Wunderground v.1.15,2013-05-25 20:24:00,
2013-05-25 15:26:00,76.0,66.3,29.97,SE,131,8.0,14.0,72,0.00,,,3.36,Wunderground v.1.15,2013-05-25 20:26:00,
2013-05-25 15:27:00,75.8,66.1,29.97,ESE,109,8.0,14.0,72,0.00,,,3.36,Wunderground v.1.15,2013-05-25 20:27:00,
2013-05-25 15:31:00,76.0,66.7,29.97,ESE,107,7.0,10.0,73,0.00,,,3.36,Wunderground v.1.15,2013-05-25 20:31:00,
2013-05-25 15:32:00,76.0,66.3,29.97,SE,131,7.0,10.0,72,0.00,,,3.36,Wunderground v.1.15,2013-05-25 20:32:00,
2013-05-25 15:33:00,75.8,66.1,29.97,SSE,158,6.0,10.0,72,0.00,,,3.36,Wunderground v.1.15,2013-05-25 20:33:00,
2013-05-25 15:35:00,76.0,66.7,29.97,ESE,113,7.0,10.0,73,0.00,,,3.36,Wunderground v.1.15,2013-05-25 20:35:00,
2013-05-25 15:38:00,76.1,66.4,29.97,ESE,104,7.0,10.0,72,0.00,,,3.36,Wunderground v.1.15,2013-05-25 20:38:00,
2013-05-25 15:41:00,76.3,66.2,29.97,ESE,116,7.0,8.0,71,0.00,,,3.36,Wunderground v.1.15,2013-05-25 20:41:00,
2013-05-25 15:44:00,76.8,66.7,29.97,SE,124,7.0,9.0,71,0.00,,,3.36,Wunderground v.1.15,2013-05-25 20:44:00,
2013-05-25 15:46:00,76.8,65.9,29.95,SSE,157,7.0,9.0,69,0.00,,,3.36,Wunderground v.1.15,2013-05-25 20:46:00,
2013-05-25 15:51:00,77.2,66.2,29.95,ESE,112,7.0,11.0,69,0.00,,,3.36,Wunderground v.1.15,2013-05-25 20:51:00,
2013-05-25 15:53:00,77.0,66.0,29.95,SE,145,8.0,11.0,69,0.00,,,3.36,Wunderground v.1.15,2013-05-25 20:53:00,
2013-05-25 15:56:00,77.0,66.0,29.95,SE,128,8.0,11.0,69,0.00,,,3.36,Wunderground v.1.15,2013-05-25 20:56:00,
2013-05-25 15:58:00,77.2,66.2,29.95,ESE,109,8.0,11.0,69,0.00,,,3.36,Wunderground v.1.15,2013-05-25 20:58:00,
2013-05-25 16:00:00,77.4,66.4,29.95,SE,127,8.0,12.0,69,0.00,,,3.36,Wunderground v.1.15,2013-05-25 21:00:00,
2013-05-25 16:02:00,77.6,67.0,29.95,SE,127,8.0,12.0,70,0.00,,,3.36,Wunderground v.1.15,2013-05-25 21:02:00,
2013-05-25 16:05:00,77.6,66.6,29.95,SSE,160,8.0,12.0,69,0.00,,,3.36,Wunderground v.1.15,2013-05-25 21:05:00,
2013-05-25 16:06:00,77.7,66.7,29.95,SSE,161,8.0,12.0,69,0.00,,,3.36,Wunderground v.1.15,2013-05-25 21:06:00,
2013-05-25 16:07:00,77.7,66.7,29.95,SSE,150,8.0,12.0,69,0.00,,,3.36,Wunderground v.1.15,2013-05-25 21:07:00,
2013-05-25 16:11:00,77.9,66.9,29.95,ESE,104,9.0,9.0,69,0.00,,,3.36,Wunderground v.1.15,2013-05-25 21:11:00,
2013-05-25 16:12:00,77.9,66.9,29.95,ESE,120,9.0,12.0,69,0.00,,,3.36,Wunderground v.1.15,2013-05-25 21:12:00,
2013-05-25 16:17:00,78.5,67.5,29.94,ESE,119,8.0,12.0,69,0.00,,,3.36,Wunderground v.1.15,2013-05-25 21:17:00,
2013-05-25 16:18:00,78.5,67.5,29.94,ESE,123,8.0,12.0,69,0.00,,,3.36,Wunderground v.1.15,2013-05-25 21:18:00,
2013-05-25 16:21:00,78.5,67.5,29.94,ESE,121,7.0,10.0,69,0.00,,,3.36,Wunderground v.1.15,2013-05-25 21:21:00,
2013-05-25 16:22:00,78.5,67.5,29.94,SSE,157,7.0,10.0,69,0.00,,,3.36,Wunderground v.1.15,2013-05-25 21:22:00,
2013-05-25 16:24:00,78.6,67.6,29.94,SE,127,7.0,12.0,69,0.00,,,3.36,Wunderground v.1.15,2013-05-25 21:24:00,
2013-05-25 16:25:00,78.6,67.2,29.94,SE,145,8.0,12.0,68,0.00,,,3.36,Wunderground v.1.15,2013-05-25 21:25:00,
2013-05-25 16:27:00,78.5,67.1,29.94,SE,130,8.0,12.0,68,0.00,,,3.36,Wunderground v.1.15,2013-05-25 21:27:00,
2013-05-25 16:30:00,78.8,67.8,29.94,SE,138,8.0,10.0,69,0.00,,,3.36,Wunderground v.1.15,2013-05-25 21:30:00,
2013-05-25 16:31:00,78.8,67.3,29.94,SSE,148,8.0,10.0,68,0.00,,,3.36,Wunderground v.1.15,2013-05-25 21:31:00,
2013-05-25 16:32:00,78.8,67.3,29.94,ESE,121,8.0,10.0,68,0.00,,,3.36,Wunderground v.1.15,2013-05-25 21:32:00,
2013-05-25 16:33:00,78.8,66.9,29.94,SW,215,8.0,10.0,67,0.00,,,3.36,Wunderground v.1.15,2013-05-25 21:33:00,
2013-05-25 16:36:00,78.8,67.3,29.94,ESE,110,8.0,10.0,68,0.00,,,3.36,Wunderground v.1.15,2013-05-25 21:36:00,
2013-05-25 16:37:00,78.8,67.3,29.94,SSE,147,7.0,12.0,68,0.00,,,3.36,Wunderground v.1.15,2013-05-25 21:37:00,
2013-05-25 16:41:00,78.8,66.9,29.94,SE,124,8.0,10.0,67,0.00,,,3.36,Wunderground v.1.15,2013-05-25 21:41:00,
2013-05-25 16:42:00,78.8,67.3,29.94,SSE,167,8.0,10.0,68,0.00,,,3.36,Wunderground v.1.15,2013-05-25 21:42:00,
2013-05-25 16:43:00,78.8,66.9,29.94,SE,134,8.0,10.0,67,0.00,,,3.36,Wunderground v.1.15,2013-05-25 21:43:00,
2013-05-25 16:44:00,78.8,66.9,29.94,SE,145,7.0,10.0,67,0.00,,,3.36,Wunderground v.1.15,2013-05-25 21:44:00,
2013-05-25 16:46:00,78.8,66.9,29.94,SE,140,7.0,10.0,67,0.00,,,3.36,Wunderground v.1.15,2013-05-25 21:46:00,
2013-05-25 16:47:00,78.8,67.3,29.94,ESE,117,7.0,11.0,68,0.00,,,3.36,Wunderground v.1.15,2013-05-25 21:47:00,
2013-05-25 16:52:00,78.5,67.5,29.94,SE,127,8.0,12.0,69,0.00,,,3.36,Wunderground v.1.15,2013-05-25 21:52:00,
2013-05-25 16:53:00,78.5,67.1,29.94,ESE,123,8.0,14.0,68,0.00,,,3.36,Wunderground v.1.15,2013-05-25 21:53:00,
2013-05-25 16:54:00,78.5,67.5,29.94,SE,143,9.0,14.0,69,0.00,,,3.36,Wunderground v.1.15,2013-05-25 21:54:00,
2013-05-25 16:57:00,78.6,67.6,29.94,ESE,104,9.0,14.0,69,0.00,,,3.36,Wunderground v.1.15,2013-05-25 21:57:00,
2013-05-25 16:58:00,78.6,67.6,29.94,SE,131,9.0,14.0,69,0.00,,,3.36,Wunderground v.1.15,2013-05-25 21:58:00,
2013-05-25 17:00:00,78.6,67.6,29.94,ESE,107,8.0,10.0,69,0.00,,,3.36,Wunderground v.1.15,2013-05-25 22:00:00,
2013-05-25 17:02:00,78.6,68.0,29.94,SE,127,8.0,12.0,70,0.00,,,3.36,Wunderground v.1.15,2013-05-25 22:02:00,
2013-05-25 17:04:00,78.5,67.5,29.94,SE,137,7.0,12.0,69,0.00,,,3.36,Wunderground v.1.15,2013-05-25 22:04:00,
2013-05-25 17:07:00,78.3,67.3,29.94,ESE,110,8.0,17.0,69,0.00,,,3.36,Wunderground v.1.15,2013-05-25 22:07:00,
2013-05-25 17:10:00,77.9,67.3,29.94,ESE,123,8.0,8.0,70,0.00,,,3.36,Wunderground v.1.15,2013-05-25 22:10:00,
2013-05-25 17:11:00,77.9,67.3,29.94,East,100,9.0,9.0,70,0.00,,,3.36,Wunderground v.1.15,2013-05-25 22:11:00,
2013-05-25 17:12:00,77.9,67.7,29.94,ESE,121,9.0,11.0,71,0.00,,,3.36,Wunderground v.1.15,2013-05-25 22:12:00,
2013-05-25 17:13:00,77.9,67.7,29.94,East,96,9.0,11.0,71,0.00,,,3.36,Wunderground v.1.15,2013-05-25 22:13:00,
2013-05-25 17:14:00,77.9,67.7,29.94,SSE,150,8.0,11.0,71,0.00,,,3.36,Wunderground v.1.15,2013-05-25 22:14:00,
2013-05-25 17:16:00,77.9,67.7,29.94,East,99,8.0,11.0,71,0.00,,,3.36,Wunderground v.1.15,2013-05-25 22:16:00,
2013-05-25 17:21:00,78.1,67.9,29.94,East,93,7.0,8.0,71,0.00,,,3.36,Wunderground v.1.15,2013-05-25 22:21:00,
2013-05-25 17:22:00,78.1,68.3,29.94,ESE,106,7.0,8.0,72,0.00,,,3.36,Wunderground v.1.15,2013-05-25 22:22:00,
2013-05-25 17:25:00,78.3,68.5,29.94,East,92,6.0,8.0,72,0.00,,,3.36,Wunderground v.1.15,2013-05-25 22:25:00,
2013-05-25 17:27:00,78.1,68.3,29.94,SE,138,6.0,12.0,72,0.00,,,3.36,Wunderground v.1.15,2013-05-25 22:27:00,
2013-05-25 17:30:00,78.1,68.3,29.94,SE,134,7.0,7.0,72,0.00,,,3.36,Wunderground v.1.15,2013-05-25 22:30:00,
2013-05-25 17:31:00,78.1,68.3,29.93,SSE,158,7.0,7.0,72,0.00,,,3.36,Wunderground v.1.15,2013-05-25 22:31:00,
2013-05-25 17:32:00,78.1,68.3,29.93,ESE,120,7.0,10.0,72,0.00,,,3.36,Wunderground v.1.15,2013-05-25 22:32:00,
2013-05-25 17:35:00,78.1,68.3,29.93,ESE,110,8.0,10.0,72,0.00,,,3.36,Wunderground v.1.15,2013-05-25 22:35:00,
2013-05-25 17:36:00,78.1,68.3,29.93,SE,127,8.0,12.0,72,0.00,,,3.36,Wunderground v.1.15,2013-05-25 22:36:00,
2013-05-25 17:37:00,77.9,68.1,29.93,SSE,154,8.0,13.0,72,0.00,,,3.36,Wunderground v.1.15,2013-05-25 22:37:00,
2013-05-25 17:40:00,77.6,67.9,29.93,ESE,120,9.0,9.0,72,0.00,,,3.36,Wunderground v.1.15,2013-05-25 22:40:00,
2013-05-25 17:42:00,77.6,67.9,29.93,South,181,9.0,11.0,72,0.00,,,3.36,Wunderground v.1.15,2013-05-25 22:42:00,
2013-05-25 17:44:00,77.6,68.3,29.93,SSE,150,9.0,11.0,73,0.00,,,3.36,Wunderground v.1.15,2013-05-25 22:44:00,
2013-05-25 17:45:00,77.6,68.3,29.93,ESE,123,9.0,11.0,73,0.00,,,3.36,Wunderground v.1.15,2013-05-25 22:45:00,
2013-05-25 17:48:00,77.6,68.7,29.93,SSE,160,8.0,11.0,74,0.00,,,3.36,Wunderground v.1.15,2013-05-25 22:48:00,
2013-05-25 17:51:00,77.6,68.7,29.93,ESE,116,6.0,9.0,74,0.00,,,3.36,Wunderground v.1.15,2013-05-25 22:51:00,
2013-05-25 17:52:00,77.6,68.7,29.93,SE,141,6.0,9.0,74,0.00,,,3.36,Wunderground v.1.15,2013-05-25 22:52:00,
2013-05-25 17:55:00,77.7,69.1,29.93,SSE,148,5.0,9.0,75,0.00,,,3.36,Wunderground v.1.15,2013-05-25 22:55:00,
2013-05-25 17:59:00,77.7,68.7,29.93,East,90,4.0,9.0,74,0.00,,,3.36,Wunderground v.1.15,2013-05-25 22:59:00,
2013-05-25 18:01:00,77.6,68.7,29.92,ESE,119,5.0,11.0,74,0.00,,,3.36,Wunderground v.1.15,2013-05-25 23:01:00,
2013-05-25 18:02:00,77.4,68.5,29.92,SE,136,6.0,11.0,74,0.00,,,3.36,Wunderground v.1.15,2013-05-25 23:02:00,
2013-05-25 18:04:00,77.2,68.3,29.92,ESE,121,6.0,11.0,74,0.00,,,3.36,Wunderground v.1.15,2013-05-25 23:04:00,
2013-05-25 18:05:00,77.2,68.3,29.92,SSE,165,6.0,11.0,74,0.00,,,3.36,Wunderground v.1.15,2013-05-25 23:05:00,
2013-05-25 18:08:00,77.0,68.9,29.92,SE,126,7.0,11.0,76,0.00,,,3.36,Wunderground v.1.15,2013-05-25 23:08:00,
2013-05-25 18:11:00,77.0,69.2,29.92,SE,145,7.0,7.0,77,0.00,,,3.36,Wunderground v.1.15,2013-05-25 23:11:00,
2013-05-25 18:12:00,76.8,69.0,29.92,SE,128,6.0,7.0,77,0.00,,,3.36,Wunderground v.1.15,2013-05-25 23:12:00,
2013-05-25 18:15:00,76.8,69.0,29.92,SE,127,6.0,7.0,77,0.00,,,3.36,Wunderground v.1.15,2013-05-25 23:15:00,
2013-05-25 18:17:00,76.7,68.9,29.92,SE,126,6.0,7.0,77,0.00,,,3.36,Wunderground v.1.15,2013-05-25 23:17:00,
2013-05-25 18:19:00,76.8,69.4,29.92,East,100,5.0,12.0,78,0.00,,,3.36,Wunderground v.1.15,2013-05-25 23:19:00,
2013-05-25 18:21:00,76.7,69.3,29.92,ESE,121,6.0,6.0,78,0.00,,,3.36,Wunderground v.1.15,2013-05-25 23:21:00,
2013-05-25 18:22:00,76.7,69.3,29.92,ESE,110,6.0,6.0,78,0.00,,,3.36,Wunderground v.1.15,2013-05-25 23:22:00,
2013-05-25 18:24:00,76.7,69.3,29.92,SE,133,6.0,11.0,78,0.00,,,3.36,Wunderground v.1.15,2013-05-25 23:24:00,
2013-05-25 18:26:00,76.5,69.5,29.92,SE,130,6.0,11.0,79,0.00,,,3.36,Wunderground v.1.15,2013-05-25 23:26:00,
2013-05-25 18:27:00,76.5,69.5,29.92,SE,124,6.0,11.0,79,0.00,,,3.36,Wunderground v.1.15,2013-05-25 23:27:00,
2013-05-25 18:28:00,76.5,69.5,29.92,SE,133,6.0,11.0,79,0.00,,,3.36,Wunderground v.1.15,2013-05-25 23:28:00,
2013-05-25 18:29:00,76.5,69.5,29.92,SE,128,6.0,11.0,79,0.00,,,3.36,Wunderground v.1.15,2013-05-25 23:29:00,
2013-05-25 18:33:00,76.5,69.5,29.92,East,79,6.0,10.0,79,0.00,,,3.36,Wunderground v.1.15,2013-05-25 23:33:00,
2013-05-25 18:36:00,76.7,69.7,29.92,ESE,109,6.0,10.0,79,0.00,,,3.36,Wunderground v.1.15,2013-05-25 23:36:00,
2013-05-25 18:37:00,76.5,69.5,29.92,East,100,6.0,10.0,79,0.00,,,3.36,Wunderground v.1.15,2013-05-25 23:37:00,
2013-05-25 18:38:00,76.7,69.7,29.92,SE,143,5.0,10.0,79,0.00,,,3.36,Wunderground v.1.15,2013-05-25 23:38:00,
2013-05-25 18:39:00,76.7,69.7,29.92,ESE,117,5.0,10.0,79,0.00,,,3.36,Wunderground v.1.15,2013-05-25 23:39:00,
2013-05-25 18:42:00,76.7,69.3,29.92,SE,137,6.0,9.0,78,0.00,,,3.36,Wunderground v.1.15,2013-05-25 23:42:00,
2013-05-25 18:44:00,76.7,69.3,29.92,ESE,109,6.0,9.0,78,0.00,,,3.36,Wunderground v.1.15,2013-05-25 23:44:00,
2013-05-25 18:47:00,76.7,69.3,29.92,SE,127,6.0,13.0,78,0.00,,,3.36,Wunderground v.1.15,2013-05-25 23:47:00,
2013-05-25 18:48:00,76.7,69.3,29.92,SE,141,6.0,13.0,78,0.00,,,3.36,Wunderground v.1.15,2013-05-25 23:48:00,
2013-05-25 18:49:00,76.7,69.3,29.92,SE,128,7.0,13.0,78,0.00,,,3.36,Wunderground v.1.15,2013-05-25 23:49:00,
2013-05-25 18:53:00,76.7,69.3,29.92,ESE,110,6.0,7.0,78,0.00,,,3.36,Wunderground v.1.15,2013-05-25 23:53:00,
2013-05-25 18:54:00,76.7,69.3,29.92,SE,131,6.0,7.0,78,0.00,,,3.36,Wunderground v.1.15,2013-05-25 23:54:00,
2013-05-25 18:56:00,76.7,68.9,29.92,SE,127,7.0,8.0,77,0.00,,,3.36,Wunderground v.1.15,2013-05-25 23:56:00,
2013-05-25 18:58:00,76.5,68.7,29.92,SE,128,7.0,9.0,77,0.00,,,3.36,Wunderground v.1.15,2013-05-25 23:58:00,
2013-05-25 19:01:00,76.5,69.1,29.91,SSE,155,7.0,7.0,78,0.00,,,3.36,Wunderground v.1.15,2013-05-26 00:01:00,
2013-05-25 19:02:00,76.5,69.1,29.91,SE,133,7.0,11.0,78,0.00,,,3.36,Wunderground v.1.15,2013-05-26 00:02:00,
2013-05-25 19:04:00,76.5,69.1,29.91,SE,130,7.0,11.0,78,0.00,,,3.36,Wunderground v.1.15,2013-05-26 00:04:00,
2013-05-25 19:06:00,76.5,69.1,29.91,ESE,119,7.0,11.0,78,0.00,,,3.36,Wunderground v.1.15,2013-05-26 00:06:00,
2013-05-25 19:07:00,76.5,69.1,29.91,ESE,123,6.0,11.0,78,0.00,,,3.36,Wunderground v.1.15,2013-05-26 00:07:00,
2013-05-25 19:08:00,76.5,69.1,29.91,ESE,107,6.0,11.0,78,0.00,,,3.36,Wunderground v.1.15,2013-05-26 00:08:00,
2013-05-25 19:09:00,76.5,69.1,29.91,East,95,6.0,11.0,78,0.00,,,3.36,Wunderground v.1.15,2013-05-26 00:09:00,
2013-05-25 19:14:00,76.3,68.9,29.91,SE,131,5.0,10.0,78,0.00,,,3.36,Wunderground v.1.15,2013-05-26 00:14:00,
2013-05-25 19:15:00,76.3,68.9,29.91,ESE,123,5.0,10.0,78,0.00,,,3.36,Wunderground v.1.15,2013-05-26 00:15:00,
2013-05-25 19:16:00,76.3,68.9,29.91,ESE,117,5.0,10.0,78,0.00,,,3.36,Wunderground v.1.15,2013-05-26 00:16:00,
2013-05-25 19:19:00,76.3,69.3,29.91,ESE,119,6.0,10.0,79,0.00,,,3.36,Wunderground v.1.15,2013-05-26 00:19:00,
2013-05-25 19:21:00,76.3,69.3,29.91,ESE,120,6.0,6.0,79,0.00,,,3.36,Wunderground v.1.15,2013-05-26 00:21:00,
2013-05-25 19:23:00,76.3,69.3,29.91,SE,124,6.0,6.0,79,0.00,,,3.36,Wunderground v.1.15,2013-05-26 00:23:00,
2013-05-25 19:27:00,76.1,69.1,29.91,ESE,116,6.0,8.0,79,0.00,,,3.36,Wunderground v.1.15,2013-05-26 00:27:00,
2013-05-25 19:28:00,76.1,69.1,29.91,ESE,119,6.0,8.0,79,0.00,,,3.36,Wunderground v.1.15,2013-05-26 00:28:00,
2013-05-25 19:32:00,76.0,69.0,29.91,SSE,158,6.0,8.0,79,0.00,,,3.36,Wunderground v.1.15,2013-05-26 00:32:00,
2013-05-25 19:34:00,76.0,69.0,29.91,ESE,114,6.0,11.0,79,0.00,,,3.36,Wunderground v.1.15,2013-05-26 00:34:00,
2013-05-25 19:35:00,76.0,69.0,29.91,SE,127,6.0,11.0,79,0.00,,,3.36,Wunderground v.1.15,2013-05-26 00:35:00,
2013-05-25 19:37:00,75.8,68.8,29.91,SSE,161,7.0,11.0,79,0.00,,,3.36,Wunderground v.1.15,2013-05-26 00:37:00,
2013-05-25 19:39:00,75.8,68.8,29.91,SE,134,8.0,12.0,79,0.00,,,3.36,Wunderground v.1.15,2013-05-26 00:39:00,
2013-05-25 19:41:00,75.6,68.6,29.91,ESE,109,9.0,12.0,79,0.00,,,3.36,Wunderground v.1.15,2013-05-26 00:41:00,
2013-05-25 19:42:00,75.6,68.6,29.91,ESE,116,9.0,12.0,79,0.00,,,3.36,Wunderground v.1.15,2013-05-26 00:42:00,
2013-05-25 19:44:00,75.4,68.8,29.91,SE,124,8.0,12.0,80,0.00,,,3.36,Wunderground v.1.15,2013-05-26 00:44:00,
2013-05-25 19:45:00,75.4,68.8,29.91,SSE,150,9.0,12.0,80,0.00,,,3.36,Wunderground v.1.15,2013-05-26 00:45:00,
2013-05-25 19:49:00,75.4,68.8,29.91,SE,130,8.0,12.0,80,0.00,,,3.36,Wunderground v.1.15,2013-05-26 00:49:00,
2013-05-25 19:51:00,75.4,69.2,29.91,East,89,6.0,6.0,81,0.00,,,3.36,Wunderground v.1.15,2013-05-26 00:51:00,
2013-05-25 19:52:00,75.4,69.2,29.91,ESE,123,6.0,6.0,81,0.00,,,3.36,Wunderground v.1.15,2013-05-26 00:52:00,
2013-05-25 19:53:00,75.4,69.2,29.91,SE,130,6.0,7.0,81,0.00,,,3.36,Wunderground v.1.15,2013-05-26 00:53:00,
2013-05-25 19:54:00,75.3,69.1,29.91,ESE,116,6.0,7.0,81,0.00,,,3.36,Wunderground v.1.15,2013-05-26 00:54:00,
2013-05-25 19:57:00,75.3,69.1,29.91,ESE,119,6.0,7.0,81,0.00,,,3.36,Wunderground v.1.15,2013-05-26 00:57:00,
2013-05-25 19:58:00,75.3,69.4,29.91,ESE,120,5.0,7.0,82,0.00,,,3.36,Wunderground v.1.15,2013-05-26 00:58:00,
2013-05-25 19:59:00,75.3,69.4,29.91,ESE,120,4.0,7.0,82,0.00,,,3.36,Wunderground v.1.15,2013-05-26 00:59:00,
2013-05-25 20:03:00,75.3,69.4,29.91,SE,133,5.0,8.0,82,0.00,,,3.36,Wunderground v.1.15,2013-05-26 01:03:00,
2013-05-25 20:04:00,75.3,69.4,29.91,ESE,120,5.0,8.0,82,0.00,,,3.36,Wunderground v.1.15,2013-05-26 01:04:00,
2013-05-25 20:06:00,75.3,69.4,29.91,ESE,109,5.0,11.0,82,0.00,,,3.36,Wunderground v.1.15,2013-05-26 01:06:00,
2013-05-25 20:09:00,75.1,69.2,29.91,ESE,113,6.0,11.0,82,0.00,,,3.36,Wunderground v.1.15,2013-05-26 01:09:00,
2013-05-25 20:11:00,75.1,69.2,29.91,East,86,6.0,6.0,82,0.00,,,3.36,Wunderground v.1.15,2013-05-26 01:11:00,
2013-05-25 20:14:00,75.1,69.2,29.91,SE,131,6.0,7.0,82,0.00,,,3.36,Wunderground v.1.15,2013-05-26 01:14:00,
2013-05-25 20:16:00,75.1,69.6,29.91,SE,138,6.0,7.0,83,0.00,,,3.36,Wunderground v.1.15,2013-05-26 01:16:00,
2013-05-25 20:17:00,74.9,69.4,29.92,ESE,116,5.0,7.0,83,0.00,,,3.36,Wunderground v.1.15,2013-05-26 01:17:00,
2013-05-25 20:18:00,74.9,69.4,29.92,ESE,112,6.0,7.0,83,0.00,,,3.36,Wunderground v.1.15,2013-05-26 01:18:00,
2013-05-25 20:21:00,74.9,69.4,29.92,ESE,114,5.0,6.0,83,0.00,,,3.36,Wunderground v.1.15,2013-05-26 01:21:00,
2013-05-25 20:22:00,74.9,69.4,29.92,ESE,117,5.0,6.0,83,0.00,,,3.36,Wunderground v.1.15,2013-05-26 01:22:00,
2013-05-25 20:24:00,74.9,69.4,29.92,SE,144,5.0,6.0,83,0.00,,,3.36,Wunderground v.1.15,2013-05-26 01:24:00,
2013-05-25 20:26:00,74.7,69.2,29.92,ESE,114,5.0,8.0,83,0.00,,,3.36,Wunderground v.1.15,2013-05-26 01:26:00,
2013-05-25 20:27:00,74.7,69.2,29.92,ESE,103,5.0,8.0,83,0.00,,,3.36,Wunderground v.1.15,2013-05-26 01:27:00,
2013-05-25 20:29:00,74.7,69.2,29.92,SE,128,5.0,8.0,83,0.00,,,3.36,Wunderground v.1.15,2013-05-26 01:29:00,
2013-05-25 20:31:00,74.6,69.4,29.92,SE,133,5.0,7.0,84,0.00,,,3.36,Wunderground v.1.15,2013-05-26 01:31:00,
2013-05-25 20:32:00,74.6,69.4,29.92,East,97,5.0,7.0,84,0.00,,,3.36,Wunderground v.1.15,2013-05-26 01:32:00,
2013-05-25 20:35:00,74.6,69.4,29.92,SE,134,5.0,8.0,84,0.00,,,3.36,Wunderground v.1.15,2013-05-26 01:35:00,
2013-05-25 20:37:00,74.6,69.4,29.92,ESE,116,5.0,8.0,84,0.00,,,3.36,Wunderground v.1.15,2013-05-26 01:37:00,
2013-05-25 20:39:00,74.6,69.4,29.92,East,100,5.0,8.0,84,0.00,,,3.36,Wunderground v.1.15,2013-05-26 01:39:00,
2013-05-25 20:42:00,74.6,69.4,29.92,ESE,110,4.0,5.0,84,0.00,,,3.36,Wunderground v.1.15,2013-05-26 01:42:00,
2013-05-25 20:43:00,74.4,69.2,29.92,ESE,119,4.0,5.0,84,0.00,,,3.36,Wunderground v.1.15,2013-05-26 01:43:00,
2013-05-25 20:44:00,74.4,69.2,29.92,ESE,119,4.0,5.0,84,0.00,,,3.36,Wunderground v.1.15,2013-05-26 01:44:00,
2013-05-25 20:45:00,74.4,69.6,29.92,ESE,120,4.0,5.0,85,0.00,,,3.36,Wunderground v.1.15,2013-05-26 01:45:00,
2013-05-25 20:48:00,74.4,69.6,29.93,SE,131,3.0,5.0,85,0.00,,,3.36,Wunderground v.1.15,2013-05-26 01:48:00,
2013-05-25 20:49:00,74.4,69.6,29.93,SE,131,3.0,5.0,85,0.00,,,3.36,Wunderground v.1.15,2013-05-26 01:49:00,
2013-05-25 20:52:00,74.2,69.4,29.93,SE,127,4.0,8.0,85,0.00,,,3.36,Wunderground v.1.15,2013-05-26 01:52:00,
2013-05-25 20:53:00,74.2,69.4,29.93,SE,126,4.0,8.0,85,0.00,,,3.36,Wunderground v.1.15,2013-05-26 01:53:00,
2013-05-25 20:54:00,74.2,69.4,29.93,ESE,107,4.0,8.0,85,0.00,,,3.36,Wunderground v.1.15,2013-05-26 01:54:00,
2013-05-25 20:58:00,74.2,69.4,29.93,ESE,110,5.0,8.0,85,0.00,,,3.36,Wunderground v.1.15,2013-05-26 01:58:00,
2013-05-25 20:59:00,74.2,69.4,29.93,ESE,110,5.0,8.0,85,0.00,,,3.36,Wunderground v.1.15,2013-05-26 01:59:00,
2013-05-25 21:03:00,74.2,69.4,29.93,ESE,102,5.0,7.0,85,0.00,,,3.36,Wunderground v.1.15,2013-05-26 02:03:00,
2013-05-25 21:04:00,74.2,69.7,29.93,ESE,117,5.0,7.0,86,0.00,,,3.36,Wunderground v.1.15,2013-05-26 02:04:00,
2013-05-25 21:07:00,74.0,69.5,29.93,SE,133,5.0,12.0,86,0.00,,,3.36,Wunderground v.1.15,2013-05-26 02:07:00,
2013-05-25 21:08:00,74.0,69.5,29.93,ESE,107,5.0,12.0,86,0.00,,,3.36,Wunderground v.1.15,2013-05-26 02:08:00,
2013-05-25 21:09:00,74.0,69.5,29.93,SE,144,5.0,12.0,86,0.00,,,3.36,Wunderground v.1.15,2013-05-26 02:09:00,
2013-05-25 21:11:00,74.0,69.5,29.93,SE,128,6.0,8.0,86,0.00,,,3.36,Wunderground v.1.15,2013-05-26 02:11:00,
2013-05-25 21:13:00,74.0,69.5,29.93,SE,126,6.0,8.0,86,0.00,,,3.36,Wunderground v.1.15,2013-05-26 02:13:00,
2013-05-25 21:14:00,74.0,69.5,29.93,SE,126,6.0,8.0,86,0.00,,,3.36,Wunderground v.1.15,2013-05-26 02:14:00,
2013-05-25 21:15:00,74.0,69.5,29.93,SE,126,6.0,9.0,86,0.00,,,3.36,Wunderground v.1.15,2013-05-26 02:15:00,
2013-05-25 21:19:00,74.0,69.5,29.93,ESE,120,5.0,9.0,86,0.00,,,3.36,Wunderground v.1.15,2013-05-26 02:19:00,
2013-05-25 21:22:00,73.9,69.4,29.93,ESE,112,4.0,6.0,86,0.00,,,3.36,Wunderground v.1.15,2013-05-26 02:22:00,
2013-05-25 21:23:00,73.9,69.4,29.93,SE,124,4.0,6.0,86,0.00,,,3.36,Wunderground v.1.15,2013-05-26 02:23:00,
2013-05-25 21:25:00,73.9,69.4,29.93,SE,124,4.0,7.0,86,0.00,,,3.36,Wunderground v.1.15,2013-05-26 02:25:00,
2013-05-25 21:26:00,73.9,69.4,29.93,ESE,107,4.0,7.0,86,0.00,,,3.36,Wunderground v.1.15,2013-05-26 02:26:00,
2013-05-25 21:27:00,73.9,69.4,29.93,ESE,123,5.0,7.0,86,0.00,,,3.36,Wunderground v.1.15,2013-05-26 02:27:00,
2013-05-25 21:28:00,73.7,69.2,29.93,SSE,147,5.0,7.0,86,0.00,,,3.36,Wunderground v.1.15,2013-05-26 02:28:00,
2013-05-25 21:31:00,73.7,69.2,29.93,SE,141,6.0,6.0,86,0.00,,,3.36,Wunderground v.1.15,2013-05-26 02:31:00,
2013-05-25 21:34:00,73.7,69.2,29.93,East,100,6.0,6.0,86,0.00,,,3.36,Wunderground v.1.15,2013-05-26 02:34:00,
2013-05-25 21:35:00,73.7,69.2,29.93,SE,124,6.0,6.0,86,0.00,,,3.36,Wunderground v.1.15,2013-05-26 02:35:00,
2013-05-25 21:36:00,73.7,69.2,29.93,ESE,114,6.0,6.0,86,0.00,,,3.36,Wunderground v.1.15,2013-05-26 02:36:00,
2013-05-25 21:38:00,73.5,69.1,29.93,ESE,119,5.0,6.0,86,0.00,,,3.36,Wunderground v.1.15,2013-05-26 02:38:00,
2013-05-25 21:41:00,73.5,69.1,29.93,ESE,120,5.0,5.0,86,0.00,,,3.36,Wunderground v.1.15,2013-05-26 02:41:00,
2013-05-25 21:42:00,73.5,69.1,29.93,SE,126,5.0,5.0,86,0.00,,,3.36,Wunderground v.1.15,2013-05-26 02:42:00,
2013-05-25 21:45:00,73.3,68.9,29.93,SE,134,5.0,8.0,86,0.00,,,3.36,Wunderground v.1.15,2013-05-26 02:45:00,
2013-05-25 21:47:00,73.3,68.9,29.93,SE,138,5.0,8.0,86,0.00,,,3.36,Wunderground v.1.15,2013-05-26 02:47:00,
2013-05-25 21:48:00,73.3,68.9,29.93,SE,128,5.0,8.0,86,0.00,,,3.36,Wunderground v.1.15,2013-05-26 02:48:00,
2013-05-25 21:49:00,73.3,68.9,29.93,SE,130,5.0,8.0,86,0.00,,,3.36,Wunderground v.1.15,2013-05-26 02:49:00,
2013-05-25 21:53:00,73.3,68.9,29.93,ESE,112,5.0,5.0,86,0.00,,,3.36,Wunderground v.1.15,2013-05-26 02:53:00,
2013-05-25 21:54:00,73.3,68.9,29.93,ESE,121,5.0,7.0,86,0.00,,,3.36,Wunderground v.1.15,2013-05-26 02:54:00,
2013-05-25 21:55:00,73.3,68.9,29.93,SE,133,5.0,7.0,86,0.00,,,3.36,Wunderground v.1.15,2013-05-26 02:55:00,
2013-05-25 21:56:00,73.3,68.9,29.93,ESE,117,5.0,8.0,86,0.00,,,3.36,Wunderground v.1.15,2013-05-26 02:56:00,
2013-05-25 21:59:00,73.3,68.5,29.93,SE,143,5.0,8.0,85,0.00,,,3.36,Wunderground v.1.15,2013-05-26 02:59:00,
2013-05-25 22:01:00,73.3,68.5,29.94,SSE,147,5.0,5.0,85,0.00,,,3.36,Wunderground v.1.15,2013-05-26 03:01:00,
2013-05-25 22:02:00,73.3,68.5,29.94,SE,126,5.0,6.0,85,0.00,,,3.36,Wunderground v.1.15,2013-05-26 03:02:00,
2013-05-25 22:04:00,73.3,68.5,29.94,SE,137,5.0,7.0,85,0.00,,,3.36,Wunderground v.1.15,2013-05-26 03:04:00,
2013-05-25 22:06:00,73.3,68.5,29.94,SE,128,5.0,7.0,85,0.00,,,3.36,Wunderground v.1.15,2013-05-26 03:06:00,
2013-05-25 22:08:00,73.3,68.5,29.94,ESE,121,5.0,8.0,85,0.00,,,3.36,Wunderground v.1.15,2013-05-26 03:08:00,
2013-05-25 22:09:00,73.3,68.5,29.94,SE,130,5.0,8.0,85,0.00,,,3.36,Wunderground v.1.15,2013-05-26 03:09:00,
2013-05-25 22:11:00,73.3,68.5,29.94,ESE,120,6.0,6.0,85,0.00,,,3.36,Wunderground v.1.15,2013-05-26 03:11:00,
2013-05-25 22:14:00,73.3,68.5,29.94,ESE,110,6.0,7.0,85,0.00,,,3.36,Wunderground v.1.15,2013-05-26 03:14:00,
2013-05-25 22:17:00,73.2,68.4,29.95,SSE,147,7.0,10.0,85,0.00,,,3.36,Wunderground v.1.15,2013-05-26 03:17:00,
2013-05-25 22:19:00,73.2,68.4,29.95,SSE,147,6.0,10.0,85,0.00,,,3.36,Wunderground v.1.15,2013-05-26 03:19:00,
2013-05-25 22:21:00,73.2,68.4,29.95,SE,136,6.0,6.0,85,0.00,,,3.36,Wunderground v.1.15,2013-05-26 03:21:00,
2013-05-25 22:24:00,73.2,68.4,29.95,SE,124,6.0,7.0,85,0.00,,,3.36,Wunderground v.1.15,2013-05-26 03:24:00,
2013-05-25 22:25:00,73.2,68.4,29.95,ESE,123,6.0,8.0,85,0.00,,,3.36,Wunderground v.1.15,2013-05-26 03:25:00,
2013-05-25 22:26:00,73.2,68.4,29.95,SE,131,6.0,8.0,85,0.00,,,3.36,Wunderground v.1.15,2013-05-26 03:26:00,
2013-05-25 22:27:00,73.2,68.4,29.95,SE,145,6.0,8.0,85,0.00,,,3.36,Wunderground v.1.15,2013-05-26 03:27:00,
2013-05-25 22:29:00,73.2,68.4,29.95,ESE,114,6.0,8.0,85,0.00,,,3.36,Wunderground v.1.15,2013-05-26 03:29:00,
2013-05-25 22:31:00,73.2,68.4,29.96,ESE,116,5.0,5.0,85,0.00,,,3.36,Wunderground v.1.15,2013-05-26 03:31:00,
2013-05-25 22:32:00,73.2,68.4,29.96,ESE,116,5.0,5.0,85,0.00,,,3.36,Wunderground v.1.15,2013-05-26 03:32:00,
2013-05-25 22:33:00,73.2,68.4,29.96,ESE,114,5.0,5.0,85,0.00,,,3.36,Wunderground v.1.15,2013-05-26 03:33:00,
2013-05-25 22:34:00,73.2,68.4,29.96,ESE,113,4.0,6.0,85,0.00,,,3.36,Wunderground v.1.15,2013-05-26 03:34:00,
2013-05-25 22:39:00,73.2,68.4,29.96,SE,131,3.0,8.0,85,0.00,,,3.36,Wunderground v.1.15,2013-05-26 03:39:00,
2013-05-25 22:41:00,73.0,68.2,29.96,ESE,123,4.0,4.0,85,0.00,,,3.36,Wunderground v.1.15,2013-05-26 03:41:00,
2013-05-25 22:43:00,73.0,68.6,29.96,ESE,120,4.0,6.0,86,0.00,,,3.36,Wunderground v.1.15,2013-05-26 03:43:00,
2013-05-25 22:45:00,72.8,68.4,29.96,SE,127,5.0,6.0,86,0.00,,,3.36,Wunderground v.1.15,2013-05-26 03:45:00,
2013-05-25 22:47:00,72.8,68.4,29.97,SE,136,4.0,6.0,86,0.00,,,3.36,Wunderground v.1.15,2013-05-26 03:47:00,
2013-05-25 22:48:00,72.8,68.4,29.97,SE,136,5.0,6.0,86,0.00,,,3.36,Wunderground v.1.15,2013-05-26 03:48:00,
2013-05-25 22:49:00,72.8,68.4,29.97,SE,137,5.0,6.0,86,0.00,,,3.36,Wunderground v.1.15,2013-05-26 03:49:00,
2013-05-25 22:52:00,72.7,68.3,29.97,SE,140,4.0,4.0,86,0.00,,,3.36,Wunderground v.1.15,2013-05-26 03:52:00,
2013-05-25 22:54:00,72.7,68.3,29.97,SE,140,4.0,5.0,86,0.00,,,3.36,Wunderground v.1.15,2013-05-26 03:54:00,
2013-05-25 22:55:00,72.7,68.3,29.97,SE,141,3.0,5.0,86,0.00,,,3.36,Wunderground v.1.15,2013-05-26 03:55:00,
2013-05-25 22:56:00,72.7,68.3,29.97,SE,138,3.0,5.0,86,0.00,,,3.36,Wunderground v.1.15,2013-05-26 03:56:00,
2013-05-25 22:57:00,72.7,68.3,29.97,SE,138,3.0,5.0,86,0.00,,,3.36,Wunderground v.1.15,2013-05-26 03:57:00,
2013-05-25 23:01:00,72.7,68.3,29.97,SE,136,3.0,5.0,86,0.00,,,3.36,Wunderground v.1.15,2013-05-26 04:01:00,
2013-05-25 23:02:00,72.7,68.3,29.97,SE,136,3.0,5.0,86,0.00,,,3.36,Wunderground v.1.15,2013-05-26 04:02:00,
2013-05-25 23:03:00,72.7,68.3,29.97,SE,136,3.0,5.0,86,0.00,,,3.36,Wunderground v.1.15,2013-05-26 04:03:00,
2013-05-25 23:04:00,72.7,68.3,29.97,SE,136,3.0,5.0,86,0.00,,,3.36,Wunderground v.1.15,2013-05-26 04:04:00,
2013-05-25 23:07:00,72.5,68.1,29.97,SE,136,2.0,5.0,86,0.00,,,3.36,Wunderground v.1.15,2013-05-26 04:07:00,
2013-05-25 23:08:00,72.5,68.1,29.97,SE,134,2.0,5.0,86,0.00,,,3.36,Wunderground v.1.15,2013-05-26 04:08:00,
2013-05-25 23:09:00,72.5,68.1,29.97,ESE,120,2.0,5.0,86,0.00,,,3.36,Wunderground v.1.15,2013-05-26 04:09:00,
2013-05-25 23:13:00,72.3,67.9,29.97,ESE,103,3.0,5.0,86,0.00,,,3.36,Wunderground v.1.15,2013-05-26 04:13:00,
2013-05-25 23:15:00,72.3,68.2,29.97,ESE,103,3.0,5.0,87,0.00,,,3.36,Wunderground v.1.15,2013-05-26 04:15:00,
2013-05-25 23:16:00,72.3,68.2,29.97,SE,131,3.0,5.0,87,0.00,,,3.36,Wunderground v.1.15,2013-05-26 04:16:00,
2013-05-25 23:17:00,72.3,68.2,29.97,SE,133,3.0,5.0,87,0.00,,,3.36,Wunderground v.1.15,2013-05-26 04:17:00,
2013-05-25 23:18:00,72.3,68.2,29.97,ESE,113,3.0,6.0,87,0.00,,,3.36,Wunderground v.1.15,2013-05-26 04:18:00,
2013-05-25 23:19:00,72.3,68.2,29.97,ESE,113,3.0,6.0,87,0.00,,,3.36,Wunderground v.1.15,2013-05-26 04:19:00,
2013-05-25 23:22:00,72.1,68.0,29.97,ESE,123,3.0,4.0,87,0.00,,,3.36,Wunderground v.1.15,2013-05-26 04:22:00,
2013-05-25 23:23:00,72.1,68.0,29.97,ESE,121,3.0,4.0,87,0.00,,,3.36,Wunderground v.1.15,2013-05-26 04:23:00,
2013-05-25 23:24:00,72.1,68.0,29.97,ESE,121,3.0,4.0,87,0.00,,,3.36,Wunderground v.1.15,2013-05-26 04:24:00,
2013-05-25 23:25:00,72.1,68.0,29.97,ESE,121,4.0,4.0,87,0.00,,,3.36,Wunderground v.1.15,2013-05-26 04:25:00,
2013-05-25 23:27:00,72.1,68.0,29.97,ESE,121,3.0,4.0,87,0.00,,,3.36,Wunderground v.1.15,2013-05-26 04:27:00,
2013-05-25 23:29:00,72.1,68.0,29.97,ESE,121,2.0,4.0,87,0.00,,,3.36,Wunderground v.1.15,2013-05-26 04:29:00,
2013-05-25 23:31:00,72.0,67.9,29.97,ESE,113,2.0,5.0,87,0.00,,,3.36,Wunderground v.1.15,2013-05-26 04:31:00,
2013-05-25 23:32:00,72.0,67.9,29.97,ESE,117,2.0,6.0,87,0.00,,,3.36,Wunderground v.1.15,2013-05-26 04:32:00,
2013-05-25 23:37:00,71.8,67.7,29.97,ESE,119,3.0,6.0,87,0.00,,,3.36,Wunderground v.1.15,2013-05-26 04:37:00,
2013-05-25 23:38:00,71.8,68.1,29.97,ESE,119,3.0,6.0,88,0.00,,,3.36,Wunderground v.1.15,2013-05-26 04:38:00,
2013-05-25 23:39:00,71.8,68.1,29.97,ESE,107,3.0,6.0,88,0.00,,,3.36,Wunderground v.1.15,2013-05-26 04:39:00,
2013-05-25 23:43:00,71.6,67.9,29.97,ESE,110,2.0,3.0,88,0.00,,,3.36,Wunderground v.1.15,2013-05-26 04:43:00,
2013-05-25 23:44:00,71.6,67.9,29.97,ESE,114,2.0,3.0,88,0.00,,,3.36,Wunderground v.1.15,2013-05-26 04:44:00,
2013-05-25 23:45:00,71.6,67.9,29.97,ESE,116,3.0,7.0,88,0.00,,,3.36,Wunderground v.1.15,2013-05-26 04:45:00,
2013-05-25 23:48:00,71.6,67.9,29.97,ESE,114,3.0,7.0,88,0.00,,,3.36,Wunderground v.1.15,2013-05-26 04:48:00,
2013-05-25 23:49:00,71.6,67.9,29.97,ESE,116,3.0,7.0,88,0.00,,,3.36,Wunderground v.1.15,2013-05-26 04:49:00,
2013-05-25 23:51:00,71.5,67.8,29.97,SE,128,3.0,3.0,88,0.00,,,3.36,Wunderground v.1.15,2013-05-26 04:51:00,
2013-05-25 23:53:00,71.5,67.8,29.97,ESE,110,3.0,6.0,88,0.00,,,3.36,Wunderground v.1.15,2013-05-26 04:53:00,
2013-05-25 23:54:00,71.5,67.8,29.97,ESE,120,3.0,6.0,88,0.00,,,3.36,Wunderground v.1.15,2013-05-26 04:54:00,
2013-05-25 23:55:00,71.5,67.8,29.97,ESE,120,3.0,6.0,88,0.00,,,3.36,Wunderground v.1.15,2013-05-26 04:55:00,
2013-05-25 23:58:00,71.5,67.8,29.97,ESE,120,3.0,6.0,88,0.00,,,3.36,Wunderground v.1.15,2013-05-26 04:58:00,